GFSFLT1_850_thetae_000.txt.gz
Theta_e
316 316 316 317 317 315 315 313 312 314 313 313 312 312 312 312 311 311 311 310 309 308 307 307 307 307 306 306 305 305 305 305
315 315 315 315 315 315 314 313 314 314 313 313 313 312 312 312 312 311 311 311 310 309 308 308 307 307 306 306 306 306 305 305
315 315 315 314 314 314 313 313 313 313 313 312 312 312 312 312 312 312 312 311 310 310 309 309 308 307 307 306 306 306 306 305
315 314 314 314 314 314 313 313 313 313 312 312 311 311 312 312 312 311 311 309 309 309 310 309 307 307 307 306 307 306 306 306
314 315 315 314 314 313 313 313 313 313 312 313 312 312 311 311 310 309 309 308 308 308 308 309 309 307 307 306 307 307 306 305
315 314 314 313 313 313 313 313 313 313 313 312 311 311 310 310 309 308 307 306 306 306 307 306 306 307 306 306 308 305 306 305
314 313 313 313 314 314 314 313 312 312 311 311 310 308 308 307 305 304 303 303 304 304 304 303 304 305 305 305 305 304 302 300
313 313 314 314 313 312 311 311 311 310 309 309 308 307 305 303 302 301 301 302 303 302 302 302 304 303 302 303 301 299 297 298
314 314 313 312 312 311 311 310 309 308 307 305 304 303 302 301 300 300 300 302 302 301 301 302 302 301 299 298 298 298 297 298
312 312 312 312 312 312 310 307 306 305 304 303 303 302 301 300 300 299 301 302 301 300 300 299 298 297 297 299 299 298 298 296
312 312 312 312 311 308 307 306 304 304 303 302 302 302 300 299 299 300 301 300 299 298 297 297 297 297 298 299 297 293 292 292
311 311 312 312 309 307 307 304 302 301 302 303 303 301 299 298 299 299 299 297 296 296 296 296 296 295 293 291 292 291 291 290
310 311 311 311 307 308 307 304 304 304 304 303 301 299 298 299 298 297 296 295 295 294 295 295 292 292 291 290 290 291 290 289
310 310 311 309 307 308 308 306 306 305 303 300 299 297 298 296 296 295 295 294 294 293 294 293 292 291 291 291 291 290 288 287
310 310 310 307 306 308 307 305 305 302 300 298 297 297 297 294 294 294 294 293 294 294 294 292 292 291 290 290 289 287 287 286
309 310 307 304 305 304 301 303 301 299 298 297 297 297 296 295 294 294 293 293 294 293 292 292 291 290 289 287 286 286 286 285
308 304 303 303 302 301 302 302 299 298 298 298 296 295 295 295 293 292 292 291 291 291 290 289 289 288 286 286 285 285 285 285
306 304 302 301 302 303 300 298 297 297 297 295 292 292 292 291 290 290 290 290 289 288 288 287 286 285 285 285 285 284 284 283
301 301 302 303 302 299 298 298 297 296 296 294 292 292 290 290 288 287 287 286 286 286 286 285 285 285 284 284 284 283 282 282

GFSFLT1_850_thetae_003.txt.gz
Theta_e
325 318 317 317 321 323 316 312 312 314 314 313 313 312 312 311 311 311 310 310 310 310 310 310 309 308 308 308 307 307 306 306
316 315 315 316 320 319 314 313 314 314 313 312 312 312 312 312 311 311 311 311 311 310 310 310 310 309 308 307 307 307 307 306
315 315 315 315 315 315 314 313 313 312 312 311 311 311 311 312 312 311 311 311 310 309 309 308 309 309 310 308 307 308 308 307
315 315 314 314 314 314 313 313 312 312 312 312 312 312 312 312 311 311 311 309 308 307 306 306 307 306 307 309 309 307 308 308
314 314 314 313 313 313 312 312 313 313 312 312 312 311 310 309 308 306 306 305 304 303 302 303 304 304 304 305 306 306 306 308
313 313 313 312 312 312 313 313 312 312 311 311 310 309 308 306 305 304 303 301 300 300 300 301 302 302 302 302 303 304 304 305
313 312 313 313 313 313 312 311 311 311 310 308 307 306 305 303 302 301 300 299 299 299 300 301 301 301 302 302 302 302 302 302
312 313 313 312 312 312 312 311 310 309 309 307 305 303 302 301 300 298 298 298 298 300 301 301 300 301 301 299 298 298 298 298
313 313 312 312 312 311 311 310 309 310 308 306 303 301 300 299 298 298 298 298 299 301 300 299 299 298 297 298 298 298 298 297
312 312 311 311 312 312 311 310 308 305 301 301 301 302 301 299 298 298 298 299 300 299 298 297 297 297 297 296 296 297 298 295
311 311 311 311 311 311 308 307 305 303 303 304 304 302 300 298 298 298 298 299 298 297 296 295 293 292 292 292 292 292 291 291
311 310 310 310 311 309 307 307 308 305 305 305 302 300 298 297 297 297 297 297 296 294 294 293 294 295 296 292 291 291 290 290
311 310 310 310 310 309 306 308 306 305 304 301 299 298 297 297 297 296 296 296 293 293 293 293 294 294 291 291 291 291 290 290
312 310 310 310 309 307 306 302 303 302 300 298 298 297 297 297 295 295 294 294 294 293 294 293 292 292 291 291 289 289 289 288
311 310 310 309 305 304 302 301 302 301 298 297 297 298 296 295 295 294 293 293 293 293 292 291 291 292 291 289 289 289 287 286
310 308 306 304 302 302 302 303 301 298 296 297 297 296 295 296 294 293 291 290 289 290 290 290 290 289 288 287 286 286 285 285
306 304 302 302 301 302 302 299 297 297 296 296 295 294 292 291 290 289 288 287 287 287 287 287 287 286 285 285 285 285 285 284
303 303 300 300 303 302 298 297 298 296 294 294 292 291 290 290 289 288 286 286 285 285 285 285 285 284 284 284 284 284 283 283
300 299 300 303 301 297 297 298 297 295 293 292 292 291 289 288 287 286 285 285 285 285 284 284 284 283 283 283 282 282 282 281

GFSFLT1_850_thetae_006.txt.gz
Theta_e
324 324 325 324 320 326 328 319 316 312 314 314 313 312 312 312 312 312 311 311 311 311 311 311 312 315 315 314 314 314 313 311
322 321 316 316 320 326 323 321 312 313 314 313 313 313 313 313 312 311 311 311 311 310 309 309 308 312 313 310 313 314 314 313
317 316 316 318 320 320 318 315 313 313 312 311 312 312 312 312 312 312 311 310 308 305 303 304 307 309 310 311 312 312 313 313
316 316 315 315 315 315 315 313 312 312 312 312 312 312 312 311 310 308 308 306 304 301 300 300 300 302 307 308 309 310 310 312
315 315 315 313 313 312 312 312 312 312 311 310 309 310 310 308 308 307 305 303 300 300 299 299 299 300 304 305 306 307 308 308
315 315 314 314 313 312 312 312 311 311 310 310 309 308 308 308 307 305 303 303 301 300 299 298 299 301 303 301 302 305 306 307
315 314 314 314 313 312 312 311 311 310 309 309 307 307 308 307 305 303 303 302 302 302 299 299 301 301 302 302 302 302 303 303
315 314 314 314 313 312 312 312 310 310 311 309 308 306 305 305 303 303 301 301 301 301 299 302 302 301 301 301 301 301 299 298
314 314 314 314 312 312 312 311 310 310 309 306 303 304 305 304 302 300 299 299 299 299 301 301 301 301 301 301 300 299 298 298
314 313 313 313 313 312 311 311 310 309 307 307 303 305 303 301 298 297 299 299 299 300 300 299 297 297 297 296 296 296 295 294
314 313 312 312 312 311 311 311 310 309 308 305 304 303 300 298 298 298 298 299 299 298 297 297 296 296 295 294 294 295 293 292
314 313 312 312 312 311 310 310 309 307 305 303 302 300 299 298 298 297 297 297 297 297 296 296 296 295 294 294 293 293 293 293
313 313 312 312 311 310 309 307 304 302 302 301 301 299 298 298 298 297 297 297 297 296 295 295 294 294 293 293 293 292 292 291
312 312 312 311 308 307 305 303 302 302 301 300 299 299 298 297 297 296 296 295 295 294 294 294 293 293 293 292 291 290 291 291
312 311 310 307 308 304 302 303 302 300 299 299 298 298 297 294 294 294 294 293 293 293 292 292 291 290 289 289 289 289 289 288
310 309 307 305 304 303 303 302 300 298 299 297 296 295 294 294 293 292 291 290 289 288 288 288 288 288 287 287 287 287 288 287
306 305 302 302 302 303 302 300 299 299 297 295 294 294 293 292 291 290 289 288 288 288 287 287 287 287 286 285 284 285 286 286
303 302 301 302 303 303 300 299 298 298 296 294 294 294 291 290 289 288 288 288 287 287 287 287 286 286 285 284 283 283 284 284
301 301 301 302 303 301 299 298 297 296 295 294 294 292 290 289 288 288 287 287 287 286 286 286 285 285 283 283 282 282 283 284

GFSFLT1_850_thetae_009.txt.gz
Theta_e
327 328 326 325 325 326 327 329 321 321 322 321 318 317 317 316 316 315 315 314 313 312 313 313 313 314 314 314 314 315 315 315
326 323 322 324 327 327 327 323 321 319 318 317 316 316 316 316 315 315 314 313 310 309 310 310 310 310 309 307 309 311 312 313
320 321 321 322 325 325 322 319 317 316 316 316 315 314 315 315 315 313 312 311 309 309 307 307 307 307 306 306 307 309 310 311
319 319 320 320 320 319 318 317 316 315 314 314 314 314 314 313 313 312 311 310 308 307 306 307 307 307 307 307 307 307 308 309
318 319 319 319 318 317 316 315 315 313 312 313 313 313 313 312 312 311 309 307 306 305 305 306 306 305 306 306 305 306 306 306
318 318 317 317 317 317 316 315 314 314 313 312 312 313 313 312 311 308 306 306 305 304 304 304 304 304 305 305 305 305 305 305
318 317 317 317 317 316 315 315 314 313 313 313 313 312 311 309 308 307 305 304 303 303 303 304 304 304 304 303 304 303 303 302
318 317 317 317 316 316 315 314 314 313 313 311 310 309 309 308 307 305 304 302 302 302 303 303 303 303 303 303 302 301 302 301
317 316 316 316 316 315 316 315 314 313 312 311 310 309 308 306 305 303 301 301 301 301 302 302 302 301 300 300 300 300 298 298
316 316 316 315 315 315 314 314 313 313 312 311 309 307 305 304 302 301 300 300 300 300 300 300 299 298 298 297 297 297 296 296
316 315 315 314 314 314 313 313 312 311 311 308 306 305 304 301 300 300 299 299 299 299 298 298 298 297 297 296 295 295 295 294
315 315 314 314 313 313 313 312 311 309 307 305 304 303 301 300 299 299 299 298 298 297 297 296 296 296 295 295 294 294 295 294
314 314 314 313 313 312 311 309 307 306 304 303 302 301 300 300 299 297 296 297 297 296 296 295 295 295 294 294 293 293 293 293
313 313 313 312 311 309 308 306 305 304 303 302 301 300 299 299 297 296 296 295 295 294 294 294 293 292 291 291 290 291 291 291
313 311 310 309 308 306 305 304 304 303 302 300 299 298 297 296 296 295 294 293 292 291 290 290 290 289 289 289 289 289 289 289
311 309 308 306 304 303 303 304 303 301 301 299 298 297 296 295 294 293 292 291 290 290 289 289 289 289 288 288 287 287 287 287
308 306 304 303 303 303 303 303 301 300 300 298 297 296 295 294 293 292 290 290 289 289 289 288 288 288 287 287 286 285 284 285
307 305 303 303 302 302 303 302 301 300 299 298 297 296 295 293 292 290 290 289 289 289 288 288 288 287 287 286 285 284 283 284
304 304 302 301 300 301 301 302 300 300 298 297 296 295 294 292 291 290 289 289 289 288 288 288 287 287 286 285 284 283 283 283

GFSFLT1_850_thetae_012.txt.gz
Theta_e
325 325 326 326 326 326 328 331 325 321 322 322 320 318 318 317 317 316 316 315 315 311 310 310 310 310 308 310 311 309 308 309
327 325 323 325 326 327 327 327 323 322 321 320 317 317 316 316 316 315 314 313 312 311 309 309 308 308 308 307 306 306 307 306
322 323 324 326 326 325 321 320 318 317 317 316 316 315 315 315 315 314 312 312 311 310 308 306 306 306 305 304 305 306 304 305
321 321 321 321 321 319 319 318 318 316 315 315 315 314 314 314 314 313 312 312 312 307 306 305 305 305 304 300 304 305 307 307
320 321 320 319 318 317 317 316 315 314 313 313 313 313 314 314 313 313 312 308 306 306 305 304 304 303 303 305 306 305 304 305
319 319 319 319 318 317 317 316 315 315 314 314 314 313 313 311 309 309 308 306 306 304 303 303 302 301 302 304 304 304 304 304
318 318 318 318 318 317 316 315 315 315 314 314 312 310 310 309 309 307 306 306 302 301 300 301 301 303 303 303 303 303 303 302
319 318 318 318 317 317 316 316 316 315 314 313 312 311 310 309 307 306 304 301 301 299 300 301 302 302 301 301 301 300 300 300
317 317 316 316 316 316 316 316 315 314 313 313 312 310 308 306 305 304 301 300 300 300 300 300 300 299 299 298 298 298 297 296
317 317 316 316 315 315 314 314 314 313 312 311 310 308 306 305 303 300 299 300 299 299 297 299 298 298 298 298 297 297 296 296
316 316 315 315 315 314 314 313 313 312 310 309 307 306 304 302 301 300 300 300 298 296 298 297 297 297 296 296 295 295 295 294
315 315 315 314 314 313 313 311 311 310 307 306 304 303 302 301 300 300 299 297 295 296 296 295 295 294 294 293 293 292 292 292
314 314 313 313 311 311 311 310 308 306 305 304 303 302 300 300 299 299 297 296 295 294 294 294 293 292 291 291 290 290 290 291
313 313 312 311 310 309 309 307 305 305 304 302 302 300 299 298 297 296 295 295 293 293 292 291 290 290 290 289 289 290 290 290
313 312 310 309 307 305 305 304 304 305 303 302 301 300 298 297 296 296 294 293 292 291 290 290 289 289 289 289 289 288 288 287
310 309 308 306 305 304 304 303 303 304 303 301 300 299 298 297 296 295 293 292 290 290 289 289 289 289 289 288 287 287 287 286
308 308 306 305 304 303 302 301 302 303 302 301 300 299 297 296 295 294 292 291 290 289 289 289 288 288 288 288 287 286 286 285
306 305 305 303 302 300 300 300 301 302 301 301 300 299 297 296 295 293 292 290 289 289 289 289 288 288 287 287 286 285 283 282
305 304 302 301 300 299 299 298 298 298 298 299 299 297 296 295 294 293 291 290 289 289 289 288 288 287 286 285 284 283 282 281

GFSFLT1_850_thetae_015.txt.gz
Theta_e
326 326 326 326 326 327 330 328 325 323 323 322 321 320 318 318 317 316 316 315 314 313 312 312 312 310 308 307 306 305 304 303
323 326 325 326 327 328 328 323 322 322 322 322 320 318 316 316 315 315 314 314 313 313 312 310 307 307 306 305 304 302 299 300
323 323 326 325 324 324 323 323 322 319 318 317 317 316 315 315 314 314 313 313 313 312 310 306 306 305 305 304 303 301 303 304
321 322 322 321 321 321 321 319 318 317 316 315 315 314 313 313 314 314 313 312 311 308 306 306 305 303 303 303 300 302 305 305
320 320 318 318 318 317 316 315 315 314 314 313 313 314 314 313 313 311 309 308 307 307 306 304 301 300 300 299 303 305 304 304
319 319 318 317 317 316 315 315 315 315 314 314 314 313 311 309 309 309 308 308 307 306 303 299 298 301 302 303 303 303 302 302
318 318 318 318 317 316 316 316 316 315 314 314 312 311 311 310 310 310 308 306 304 300 298 299 300 301 301 301 301 299 299 299
318 318 318 317 317 316 316 316 316 316 314 313 312 312 311 311 310 308 305 301 299 299 299 298 299 299 299 299 299 298 298 297
317 317 316 316 316 315 315 315 314 314 314 313 311 310 309 308 306 303 300 299 299 299 299 296 296 297 297 297 297 297 296 295
317 315 315 315 315 314 314 314 314 314 313 312 310 307 306 304 302 300 300 300 299 299 295 296 296 295 294 294 294 293 293 293
315 314 314 314 314 313 313 312 312 311 309 308 307 305 303 302 301 300 300 299 298 294 293 293 294 294 293 292 292 291 291 291
314 313 313 312 312 311 310 311 310 308 307 306 305 304 302 301 301 300 300 297 294 294 294 293 292 291 290 290 289 289 289 290
313 313 312 312 311 309 308 306 305 305 305 304 304 302 302 301 300 299 298 295 294 293 293 292 291 290 289 289 289 289 289 289
312 312 310 309 308 306 304 304 304 303 303 304 303 302 301 300 298 298 296 296 294 293 292 290 290 289 289 289 288 288 288 288
311 307 307 307 305 304 304 303 302 301 302 303 302 302 301 299 297 296 295 294 293 291 290 290 289 289 288 288 288 288 288 287
307 306 306 304 304 303 301 300 300 299 300 299 301 301 300 299 299 297 295 293 291 290 290 289 289 289 288 288 288 288 287 286
305 305 305 304 302 301 300 299 298 297 296 296 297 299 299 298 298 296 294 292 290 290 289 289 289 289 288 288 287 286 285 284
304 303 303 301 300 299 298 297 296 296 295 295 297 296 296 296 296 294 294 292 290 289 289 289 289 289 288 287 285 284 284 283
302 301 300 299 298 297 297 296 295 295 294 294 295 295 294 295 295 294 292 291 289 289 289 289 288 288 286 284 284 284 283 282

GFSFLT1_850_thetae_018.txt.gz
Theta_e
326 326 327 328 329 331 330 328 324 325 324 322 321 321 320 317 316 315 314 313 313 313 313 313 313 311 311 307 306 303 302 302
326 327 327 328 331 329 326 324 324 323 323 320 320 317 316 315 314 313 313 313 313 313 313 312 310 307 306 305 303 302 302 300
323 323 325 327 326 325 323 317 321 321 318 319 317 315 314 314 314 313 313 313 313 311 309 307 306 305 304 302 301 300 298 300
320 320 320 319 318 318 318 317 317 316 316 315 314 313 313 313 313 313 312 311 309 308 307 306 305 303 300 298 297 298 301 303
318 318 317 316 316 315 314 314 314 315 315 314 314 313 313 313 313 312 310 310 309 308 307 305 300 296 295 298 301 302 302 301
318 317 317 317 317 316 315 315 315 314 315 315 314 313 313 312 311 311 310 309 308 307 301 296 295 297 298 299 299 299 299 298
318 318 318 317 316 316 316 316 316 316 315 314 313 312 312 311 310 309 307 307 307 301 297 297 298 297 296 297 298 298 297 297
318 318 317 317 316 316 316 316 315 315 314 313 313 312 311 310 309 308 307 304 300 299 298 299 296 293 295 295 295 296 295 295
318 318 318 316 315 314 314 314 314 314 313 312 311 309 308 306 304 304 302 301 300 299 299 294 292 293 293 293 293 292 292 292
315 314 314 314 314 314 313 312 311 311 310 310 309 306 304 304 303 302 301 300 300 299 294 293 292 293 293 292 291 290 289 290
314 313 313 312 311 310 310 309 309 308 307 306 304 304 304 303 302 301 301 300 299 295 294 293 292 292 291 290 290 289 289 289
312 312 311 311 309 308 306 305 304 304 304 303 302 303 304 303 302 300 300 298 296 295 294 293 292 292 290 289 289 289 288 288
311 310 309 307 305 304 303 304 303 302 301 302 303 303 302 302 301 301 300 298 296 294 293 293 292 290 289 289 288 287 288 288
311 309 305 303 304 304 304 303 302 301 300 302 299 297 299 300 300 300 296 295 297 293 292 292 290 289 289 289 288 288 288 288
307 303 303 304 304 303 302 300 300 300 299 298 297 296 297 300 299 298 297 297 295 292 291 290 289 289 289 288 288 288 288 287
303 303 304 304 302 301 300 299 299 298 297 296 295 294 295 295 294 294 294 295 293 292 290 289 289 289 289 288 288 288 287 285
302 303 302 301 300 299 299 298 297 296 295 294 294 294 294 293 292 294 295 293 291 291 289 289 289 289 288 288 287 286 284 284
302 301 300 299 298 297 297 296 295 294 294 294 294 294 293 292 292 294 294 294 291 290 289 289 289 288 288 287 285 284 283 283
300 299 298 297 296 296 295 295 294 294 294 294 294 294 293 292 292 293 293 290 290 289 289 289 288 287 286 284 283 283 282 281

GFSFLT1_850_thetae_021.txt.gz
Theta_e
326 326 327 326 325 330 327 326 326 325 324 323 322 320 319 318 318 318 317 315 314 314 313 313 311 308 307 307 306 305 304 301
326 327 327 327 329 329 327 326 324 324 324 323 319 317 316 315 314 314 314 313 313 313 310 309 308 308 307 306 305 304 302 297
328 329 331 330 328 325 320 322 324 324 322 317 318 318 315 314 314 314 313 312 311 310 311 310 308 307 306 305 302 297 295 297
323 323 324 321 320 318 317 317 317 318 317 317 315 314 313 312 312 312 312 311 309 308 307 307 306 303 298 295 294 294 295 296
319 319 318 316 315 315 314 314 314 313 313 313 313 313 312 312 312 312 310 309 309 308 307 306 299 295 294 293 293 294 296 297
317 316 317 316 316 315 315 315 315 315 315 315 314 314 313 312 311 309 308 308 308 305 303 299 297 296 293 293 294 296 297 297
317 317 317 316 316 315 315 315 315 315 315 314 313 312 311 310 309 309 307 304 301 300 300 299 298 294 292 292 293 294 294 294
317 317 317 316 316 316 316 315 314 313 313 313 312 311 309 305 302 302 302 302 301 300 299 299 295 292 292 292 292 292 292 291
317 317 317 316 315 314 313 313 312 311 311 310 309 305 304 302 302 303 302 302 301 300 299 296 293 292 292 291 291 291 290 290
316 316 315 314 313 312 310 309 308 307 306 305 303 302 302 302 303 303 302 301 300 300 298 294 296 293 292 291 290 289 289 289
313 313 313 312 311 309 306 304 303 303 303 302 302 303 304 303 302 302 301 300 299 298 297 297 294 293 292 290 289 289 288 287
311 311 310 309 307 304 303 303 303 302 302 301 302 303 300 298 298 300 300 299 299 297 297 294 293 292 291 290 289 288 287 288
310 310 308 304 304 303 303 303 302 301 301 300 300 299 296 294 298 300 300 297 297 296 296 295 292 291 290 289 288 288 288 288
308 305 304 303 303 303 302 302 301 300 299 298 297 296 295 293 293 293 293 294 295 295 295 293 291 290 289 289 288 288 288 288
304 303 303 303 303 302 301 300 299 299 298 297 296 294 293 293 293 293 292 293 295 295 293 292 290 289 289 289 288 288 288 287
303 303 303 302 301 301 300 299 298 297 296 295 294 294 294 294 294 293 291 294 294 294 293 289 289 289 289 288 288 287 287 285
302 302 301 300 300 299 298 297 296 295 295 294 294 294 294 294 293 291 292 292 292 293 291 289 289 289 288 288 287 285 284 283
302 301 299 298 298 297 296 295 295 295 294 294 294 294 293 293 291 291 291 292 293 289 290 289 289 288 287 286 285 283 282 281
300 299 298 297 296 295 295 295 294 294 294 294 293 293 293 292 291 291 291 291 290 290 289 288 288 287 286 284 283 281 280 280

GFSFLT1_850_thetae_024.txt.gz
Theta_e
325 325 325 324 323 328 327 325 324 325 325 324 322 321 318 318 318 318 317 316 314 314 314 311 310 309 308 308 307 307 305 302
325 326 325 325 326 328 326 324 325 324 323 321 318 317 319 319 315 314 314 313 313 312 311 309 310 309 308 307 305 300 297 295
329 328 328 328 328 327 324 323 324 321 321 320 319 318 314 313 312 312 312 312 312 311 310 309 308 308 307 300 295 294 293 293
327 326 323 322 319 318 318 319 320 318 316 314 313 313 312 312 312 312 312 312 311 309 307 306 303 301 298 296 294 293 293 293
322 319 316 316 315 314 314 314 314 314 314 314 314 314 314 313 313 312 311 309 308 305 301 299 299 298 297 294 292 292 293 294
316 316 315 315 314 314 315 315 315 315 315 315 314 314 313 312 311 310 308 303 303 302 300 300 299 299 294 292 292 292 292 293
316 316 315 315 315 315 315 315 315 315 314 314 313 312 311 309 305 302 302 301 300 301 300 300 299 299 294 292 291 291 290 290
316 316 316 315 315 315 315 315 314 313 312 311 310 308 305 303 301 301 301 301 300 300 300 300 299 296 294 296 292 291 290 289
316 316 316 316 316 315 314 313 310 309 307 306 304 302 302 303 303 303 302 301 301 300 300 299 299 297 296 294 291 290 289 288
316 316 315 314 313 312 310 308 305 303 303 302 302 302 303 303 302 301 299 300 300 300 299 298 297 297 294 292 291 290 289 288
314 313 313 312 311 310 307 303 303 302 300 301 301 300 301 301 297 296 295 299 299 298 296 296 296 295 293 292 290 289 288 288
312 311 310 310 309 306 304 303 301 300 300 300 300 300 298 296 294 293 294 295 293 293 296 296 296 294 292 291 289 289 288 288
310 310 310 307 304 305 303 302 301 301 300 299 298 296 295 293 293 293 293 293 292 293 295 294 294 294 290 290 289 288 288 288
310 308 305 303 303 303 302 301 300 300 299 297 296 295 293 293 293 293 293 292 291 293 294 293 294 291 290 289 289 288 288 288
306 304 303 303 303 302 301 300 299 298 296 295 294 294 293 294 293 293 292 291 291 292 293 293 293 290 289 289 288 288 288 287
305 303 303 303 302 301 300 299 297 296 295 294 294 294 294 293 293 292 291 290 292 293 292 292 290 289 289 288 288 288 286 285
303 303 302 301 300 299 298 297 295 295 294 294 294 294 293 292 292 291 290 291 291 291 292 290 289 289 289 288 287 286 284 283
303 302 301 300 299 297 296 295 295 294 294 293 294 293 292 291 291 290 290 291 291 290 290 290 289 288 288 287 286 284 282 281
302 301 300 298 297 296 295 295 294 294 293 293 293 292 291 290 290 289 291 290 290 290 289 289 288 288 287 286 284 282 281 281

GFSFLT1_850_thetae_030.txt.gz
Theta_e
325 324 326 327 329 326 326 326 325 324 322 321 321 322 321 319 318 318 318 316 314 313 312 311 309 308 306 305 303 302 302 301
323 323 323 327 327 326 326 326 326 324 322 323 322 319 318 317 317 314 313 313 312 311 309 308 308 307 304 301 301 301 300 301
326 326 328 327 327 327 326 326 326 323 321 321 319 317 317 315 314 313 312 311 310 309 309 307 306 303 303 300 300 299 299 299
328 329 329 328 329 328 328 327 325 320 318 317 317 317 314 313 312 311 311 310 309 305 302 302 301 299 300 301 300 299 298 298
329 329 329 328 328 327 327 324 320 317 316 317 317 316 316 314 312 311 309 308 304 302 299 298 298 300 301 300 298 299 297 297
326 325 323 321 319 320 323 320 317 314 314 314 315 314 313 311 310 308 307 306 304 302 301 299 299 301 301 300 299 299 297 296
321 318 317 317 317 318 316 315 314 314 313 314 313 313 311 309 307 306 304 303 303 303 303 302 302 301 300 299 298 297 297 295
317 317 316 316 316 316 316 315 314 314 313 311 310 308 305 304 303 303 303 303 302 301 302 301 301 300 300 298 297 297 296 295
317 317 316 316 316 316 315 315 313 312 309 305 301 299 304 303 304 303 301 300 300 300 300 299 298 299 298 297 297 296 296 295
318 317 317 316 315 315 314 312 310 306 302 302 299 301 300 302 300 298 299 299 298 296 297 297 297 297 297 297 296 296 295 294
318 317 316 316 314 314 312 307 304 302 301 299 302 300 299 298 297 298 297 296 296 295 295 295 295 296 296 296 295 295 294 294
318 317 315 314 312 310 307 304 302 304 304 300 299 298 297 297 297 296 296 295 295 294 294 294 295 295 295 295 295 294 293 292
317 315 314 311 309 307 305 302 303 302 300 299 298 297 297 297 296 295 295 295 294 294 294 294 294 294 295 294 294 292 292 291
316 314 312 310 307 306 304 303 303 301 299 298 298 298 297 296 296 295 295 294 293 294 294 294 294 294 293 292 291 291 290 290
314 313 311 309 306 305 303 306 302 300 298 297 297 297 296 296 296 295 294 293 293 294 293 292 292 292 291 291 290 290 290 289
313 312 310 307 306 305 304 302 300 299 297 297 297 296 296 296 295 294 293 293 293 293 293 292 291 291 290 290 290 289 288 287
312 311 309 307 305 305 305 300 299 297 296 296 295 295 295 295 294 293 293 293 293 293 292 291 291 289 289 288 288 287 287 285
311 309 308 306 304 303 301 298 297 296 296 295 294 294 294 294 293 292 292 292 293 292 292 291 290 290 288 288 287 286 285 284
311 309 306 305 302 300 299 297 296 296 294 294 294 294 293 293 292 292 292 292 292 292 291 290 290 288 288 287 286 284 284 283

GFSFLT1_850_thetae_033.txt.gz
Theta_e
327 326 324 325 329 331 331 329 323 322 323 323 322 319 320 321 320 319 318 317 316 313 313 312 311 310 309 308 307 305 303 302
329 328 326 328 331 331 331 330 326 325 324 324 321 323 321 318 317 317 315 313 312 312 312 311 309 308 307 306 304 302 302 301
329 330 330 330 331 330 329 329 326 326 326 324 322 320 318 317 316 314 313 312 312 311 310 309 308 307 305 303 303 302 301 300
330 330 331 331 330 330 329 329 327 327 325 322 320 320 318 316 314 313 312 311 310 309 308 307 305 304 302 303 303 301 300 300
331 331 331 331 330 329 330 329 327 324 321 320 319 318 317 317 316 314 312 310 309 308 306 305 304 303 303 303 302 301 300 299
330 330 331 331 329 328 328 326 323 321 320 319 319 318 317 316 314 313 311 310 308 306 305 305 304 303 303 302 302 301 299 299
330 329 327 326 326 327 326 321 320 319 318 318 318 317 315 313 311 309 306 305 304 305 304 304 303 302 302 302 301 299 299 298
324 322 320 321 322 323 323 319 318 318 317 317 316 313 310 307 307 305 305 304 303 302 302 301 301 301 300 300 300 298 298 298
321 319 319 319 319 319 318 318 317 317 315 313 310 307 306 306 306 305 302 301 301 301 299 299 299 299 298 298 298 298 297 297
320 319 319 319 319 319 318 318 316 315 312 308 307 305 305 304 302 301 300 300 299 297 297 297 296 296 297 297 297 298 296 296
320 320 319 319 319 319 318 316 314 310 308 307 306 307 303 301 300 300 299 298 297 297 296 296 296 296 296 296 297 296 296 296
321 320 320 320 318 317 315 313 310 308 307 307 305 303 301 300 300 299 298 297 297 296 295 296 296 296 296 296 296 296 295 294
321 321 320 319 318 315 313 310 308 308 306 304 303 301 300 300 299 298 297 297 296 295 295 296 296 295 295 294 295 294 294 293
322 321 320 318 316 314 311 308 307 306 305 303 302 300 300 300 298 298 297 296 295 295 295 295 295 294 293 293 293 292 292 291
322 321 319 317 314 312 310 307 307 306 303 302 300 300 300 298 298 298 297 296 295 295 295 295 294 293 292 292 292 291 291 290
321 320 318 316 313 311 308 306 306 302 303 300 299 299 298 298 298 297 296 295 295 295 294 294 293 292 292 291 291 290 289 288
319 318 317 315 313 310 308 305 303 303 301 299 299 298 297 297 297 296 295 294 294 294 294 293 292 292 291 289 289 288 288 287
318 317 316 314 311 309 306 304 303 301 299 299 298 296 297 296 295 295 294 294 294 294 294 293 292 292 291 289 288 288 286 286
317 316 315 313 310 307 304 303 300 299 298 298 296 296 295 295 294 294 294 294 294 293 293 293 292 291 290 288 288 287 286 286

GFSFLT1_850_thetae_036.txt.gz
Theta_e
322 323 325 328 330 329 329 330 327 326 324 321 320 321 321 319 321 321 319 318 317 316 314 313 312 311 310 309 307 305 302 302
325 324 324 326 331 331 329 330 327 324 323 324 323 321 321 322 319 318 316 314 313 313 313 312 311 309 308 306 304 304 303 301
330 328 325 326 331 332 330 329 328 324 326 325 324 322 320 318 317 314 314 313 313 312 311 310 309 308 306 303 303 303 302 301
331 330 329 329 332 332 329 329 328 325 327 324 322 319 319 318 316 313 313 312 312 311 310 308 307 305 304 303 303 302 302 301
331 331 331 331 332 331 329 329 326 326 325 322 320 320 318 317 316 314 314 313 312 310 308 307 305 305 304 303 303 302 302 301
330 331 332 332 330 329 329 325 326 326 323 320 320 320 318 317 316 315 313 312 309 307 306 306 305 305 304 303 302 302 302 301
331 331 331 330 328 327 328 328 326 323 320 320 320 319 317 316 313 312 309 307 306 305 305 304 304 303 302 302 301 301 301 300
330 331 330 331 329 329 328 324 321 321 320 319 319 318 316 314 310 308 306 306 305 303 302 302 299 299 299 299 299 299 299 299
330 329 327 326 327 327 325 321 320 319 319 318 316 313 310 307 307 307 309 303 302 301 300 298 298 297 297 297 297 298 298 298
326 323 322 322 323 324 322 320 319 318 317 315 311 308 307 305 308 305 302 301 300 299 298 297 296 296 296 296 296 296 297 297
323 320 320 320 320 320 319 319 318 318 315 311 309 307 307 306 304 301 301 300 299 298 297 296 296 296 296 296 296 297 296 296
322 320 320 320 320 320 319 319 318 316 312 309 307 307 304 304 300 301 300 299 298 297 296 296 296 296 296 296 296 295 295 295
322 321 321 321 320 320 319 318 316 312 309 308 307 305 304 301 301 300 299 298 298 297 296 295 296 296 295 294 293 294 294 293
323 322 322 321 321 319 318 315 312 310 309 307 305 303 301 301 300 299 298 298 297 296 295 295 295 295 294 293 293 293 292 292
323 322 322 321 320 319 317 314 310 309 307 306 303 302 301 301 300 299 298 298 297 295 295 295 295 295 293 293 292 292 291 291
322 322 322 321 320 318 315 312 309 308 307 303 303 301 300 300 299 298 298 297 296 295 295 295 295 294 293 292 292 290 290 289
321 321 322 321 320 317 314 311 308 307 304 303 302 300 299 298 298 298 297 296 295 295 295 294 294 293 292 292 291 290 288 287
318 319 320 319 319 316 313 310 307 305 303 301 300 299 298 297 297 296 295 295 294 294 294 294 294 293 292 292 291 289 287 286
315 317 318 318 317 314 311 308 305 304 300 300 299 297 297 296 296 295 295 294 294 294 294 293 294 293 292 292 290 289 287 286

GFSFLT1_850_thetae_039.txt.gz
Theta_e
326 326 326 327 326 323 325 327 325 325 324 323 320 319 319 321 320 320 321 320 318 313 312 312 312 311 311 309 308 306 303 301
324 324 326 327 327 326 325 324 325 325 323 323 320 320 322 321 321 319 318 313 312 312 312 312 311 310 309 308 305 303 301 301
323 324 328 329 328 328 328 328 327 327 323 323 322 323 321 320 319 316 312 312 312 312 313 312 311 310 309 306 303 302 301 302
324 323 326 329 329 329 330 329 327 326 324 325 324 321 318 317 314 313 313 313 312 312 312 311 309 306 304 304 302 302 302 302
327 327 327 330 331 331 331 329 329 327 327 326 322 319 316 314 315 315 313 313 313 311 308 306 305 305 305 304 303 303 302 302
329 329 328 330 332 332 330 329 327 326 327 324 321 318 318 317 316 315 314 313 309 307 306 306 306 305 305 304 303 301 302 301
330 330 330 330 331 330 330 329 326 326 326 323 320 320 319 317 316 314 313 310 310 307 306 305 305 304 303 301 297 299 299 299
331 331 331 331 330 330 329 328 326 326 323 321 320 320 318 317 315 312 308 306 306 306 306 304 303 302 297 295 296 296 297 298
331 331 331 330 327 326 327 328 327 324 322 320 320 319 316 314 312 311 309 307 307 306 304 302 298 296 295 295 294 294 295 296
330 330 330 330 330 330 329 325 322 321 320 319 319 319 317 314 310 307 307 307 303 301 299 297 297 295 294 294 295 295 296 297
330 329 329 330 328 327 326 323 320 320 319 319 318 316 312 309 306 308 304 301 301 300 298 296 295 294 294 296 296 296 296 295
327 326 324 323 322 322 324 322 319 319 318 317 314 311 309 307 306 303 301 300 300 298 297 296 295 294 296 296 296 294 292 294
325 322 320 320 320 320 320 320 319 318 317 315 311 309 308 305 304 301 301 300 299 298 297 296 295 295 295 295 295 293 292 293
325 322 320 320 320 320 320 320 319 317 315 312 309 307 306 303 301 301 300 299 298 298 297 296 295 295 295 295 294 293 292 292
324 322 321 320 320 320 320 320 319 317 312 309 308 306 303 302 301 300 300 298 298 298 297 295 294 295 295 295 293 291 291 291
324 323 322 321 321 321 320 319 317 315 310 308 306 303 303 301 301 300 298 298 298 297 296 294 295 294 294 294 293 292 291 290
321 322 322 322 321 320 319 318 315 311 309 307 305 302 302 299 298 298 298 297 296 295 294 294 294 294 294 294 293 292 291 290
316 319 320 321 321 320 318 315 312 309 307 305 303 301 299 299 299 297 296 295 294 294 294 294 294 294 293 294 293 292 291 289
314 315 315 319 319 318 316 312 309 307 304 301 300 299 298 296 296 295 295 294 294 294 294 294 294 293 293 293 293 292 291 289

GFSFLT1_850_thetae_042.txt.gz
Theta_e
330 330 330 328 326 317 322 322 324 328 329 328 326 324 320 318 319 319 319 321 321 320 318 313 312 312 311 310 309 308 303 301
330 330 329 326 324 314 315 321 325 325 327 326 324 324 321 319 321 320 320 320 319 313 312 312 312 311 310 309 308 303 301 300
330 329 327 325 326 323 317 318 320 325 325 324 322 321 319 321 321 320 319 316 312 312 312 312 312 311 310 307 303 303 301 301
327 326 325 326 326 326 325 324 323 325 325 324 323 322 322 322 320 318 316 313 312 312 312 312 310 307 306 304 304 303 303 302
325 325 326 326 326 327 327 327 326 326 326 323 323 323 324 322 319 315 313 313 312 313 312 309 307 307 306 305 304 304 303 301
324 324 325 327 327 328 328 329 329 328 327 324 325 324 321 318 315 315 314 313 313 313 310 307 306 306 305 305 304 302 299 298
323 324 324 327 328 329 330 330 329 328 326 325 326 324 319 317 316 316 315 314 311 310 309 307 306 306 304 302 300 296 294 295
325 325 327 328 330 329 329 330 328 328 326 327 325 322 319 319 319 317 315 312 311 310 307 305 304 304 302 298 294 293 293 294
327 329 328 328 329 330 330 330 329 328 325 326 324 321 320 319 317 316 313 311 307 305 305 305 301 298 297 294 293 293 294 294
328 329 330 330 330 330 329 329 329 326 326 324 321 320 318 316 314 311 307 305 306 307 302 301 299 297 294 293 292 294 295 295
330 330 330 330 330 328 325 326 327 327 324 321 320 319 316 313 310 308 307 307 307 301 301 298 297 296 294 292 294 295 295 295
330 330 330 330 329 328 328 327 325 325 323 321 320 318 317 314 310 307 306 303 301 304 301 298 297 296 294 293 294 295 295 293
328 329 329 329 329 329 328 327 324 321 321 319 318 318 316 312 308 306 305 305 304 300 299 298 298 297 294 293 294 295 294 292
329 328 328 327 326 325 324 324 324 320 319 318 317 314 311 309 308 307 302 302 299 299 298 298 298 296 294 294 295 295 294 291
327 327 326 325 323 321 320 320 320 319 318 318 315 312 309 308 305 302 302 300 299 298 298 297 296 294 294 294 294 294 294 292
325 324 323 322 321 320 320 320 320 319 318 315 311 308 304 303 302 301 300 298 297 297 296 295 294 294 294 294 294 294 294 292
321 322 322 320 320 320 320 320 319 317 313 309 307 305 303 302 301 299 298 297 296 295 296 294 294 294 294 294 294 293 293 292
318 319 320 321 321 320 320 319 318 314 309 306 304 302 302 300 298 298 296 296 296 295 293 294 293 294 294 294 293 293 293 293
314 315 319 321 321 320 319 317 312 308 305 303 301 299 298 297 296 297 299 297 295 293 294 294 294 293 293 293 292 293 292 292

GFSFLT1_850_thetae_045.txt.gz
Theta_e
331 328 325 326 325 325 327 324 323 324 326 326 326 328 328 326 322 318 319 320 321 321 321 320 318 313 311 310 310 308 302 300
330 329 328 327 329 328 329 326 323 324 325 327 327 328 327 324 318 319 320 320 321 321 319 315 311 311 311 310 308 303 302 300
330 329 329 329 329 329 328 326 324 323 323 326 328 327 325 320 319 320 320 320 320 318 313 311 311 311 310 307 305 303 302 302
331 330 329 329 329 326 322 321 320 321 324 327 327 325 324 320 320 320 320 318 316 313 312 311 312 311 307 306 305 304 303 303
331 331 329 329 328 325 322 316 316 320 324 328 327 326 322 321 322 321 319 317 313 312 312 312 311 307 306 306 305 304 303 301
331 330 328 327 328 325 324 319 317 320 324 328 327 325 323 322 323 320 318 315 313 312 312 311 307 306 306 305 305 303 299 296
327 328 328 328 327 325 325 324 325 324 326 327 326 323 322 323 320 319 315 314 313 312 311 308 307 306 304 304 301 298 295 293
326 326 326 326 325 325 325 326 326 327 327 327 326 325 324 323 320 316 315 315 313 312 310 307 305 303 305 301 299 297 293 292
324 325 325 324 325 325 326 327 326 328 329 328 327 324 325 323 320 317 316 314 313 311 309 310 304 303 300 299 297 293 292 293
323 323 323 324 324 324 326 328 328 328 328 328 326 325 324 323 320 317 315 313 311 308 307 305 305 300 301 295 294 293 293 295
325 324 324 325 327 328 328 329 328 326 327 327 325 324 323 322 319 317 315 313 311 310 307 306 304 301 297 296 294 293 294 294
326 326 327 328 328 329 329 329 327 326 327 325 324 324 322 321 318 316 315 312 310 307 306 304 300 298 297 296 294 293 293 294
327 326 328 329 329 330 329 328 324 325 326 325 323 321 319 319 315 313 311 308 306 304 304 299 298 297 297 295 293 293 294 294
328 328 327 326 326 329 328 327 326 324 324 322 321 320 319 316 313 309 305 303 303 301 300 298 297 296 295 294 293 294 294 294
328 328 328 328 328 328 326 325 326 325 323 322 319 317 313 311 308 306 303 302 301 300 298 297 296 296 295 294 294 294 293 294
326 327 328 328 328 327 326 325 323 322 320 319 317 312 309 308 305 302 301 300 298 297 296 297 296 296 294 294 294 294 294 294
321 323 325 325 324 324 323 322 321 319 318 317 312 308 306 303 301 301 299 297 297 299 299 299 296 294 294 294 294 294 293 293
318 319 319 320 319 319 320 320 319 318 316 311 308 305 302 301 299 298 298 300 300 299 297 295 294 294 293 293 293 293 293 292
315 317 319 320 319 319 318 318 316 313 310 307 304 302 300 298 298 301 300 299 297 295 294 293 293 293 293 293 293 293 292 292

GFSFLT1_850_thetae_048.txt.gz
Theta_e
324 322 321 321 322 324 325 322 316 313 315 318 321 325 326 325 325 324 321 319 322 324 322 321 320 319 316 312 310 309 304 301
329 327 323 321 323 324 325 325 321 317 316 324 326 327 327 326 326 325 318 319 319 321 321 320 319 315 311 311 309 305 303 302
330 330 328 325 324 323 323 325 324 322 323 325 326 326 326 326 326 322 318 320 320 320 320 318 315 311 311 309 306 305 304 303
330 329 329 327 326 326 325 324 326 325 322 323 324 326 326 325 324 320 319 320 320 320 318 314 312 311 309 306 306 305 304 303
329 329 329 328 327 327 327 327 325 324 323 322 323 323 326 324 324 321 319 320 319 317 314 312 311 310 307 306 306 305 302 300
329 329 329 329 328 328 327 327 327 325 324 323 323 325 327 325 322 320 321 318 316 314 312 311 310 309 307 306 305 303 305 299
329 330 330 330 329 328 328 327 326 325 324 323 322 323 324 324 321 322 321 317 315 313 312 312 311 309 307 307 305 308 299 296
329 329 329 330 329 328 328 328 326 322 319 321 322 324 325 324 321 322 320 317 315 313 312 312 311 308 310 306 306 301 301 301
328 328 328 329 329 328 328 327 326 325 321 322 322 326 326 323 323 323 319 317 315 314 314 312 310 313 309 307 306 301 295 293
325 327 326 327 327 327 327 325 326 325 325 325 326 326 326 325 323 324 320 317 315 315 316 313 312 310 307 305 298 295 293 293
322 323 323 325 325 325 325 324 324 325 325 326 326 327 325 324 322 321 321 319 318 317 314 310 309 306 303 298 297 295 294 294
322 323 323 323 323 324 323 324 324 326 327 327 326 325 323 321 321 321 320 319 317 314 309 308 306 302 298 297 295 296 294 293
325 325 324 324 324 324 325 326 327 328 328 326 324 324 323 322 320 320 319 317 315 309 308 303 300 298 297 295 298 294 293 294
326 326 326 325 325 326 327 328 326 325 324 324 323 322 321 320 319 317 315 311 306 305 301 300 302 296 297 298 294 294 294 294
327 327 328 328 328 328 327 326 325 324 324 323 323 322 319 317 316 312 309 306 302 302 301 297 296 299 298 296 295 294 294 294
324 326 326 327 327 328 327 326 326 325 323 323 321 317 315 313 308 307 302 302 302 298 296 299 299 298 297 294 294 294 294 294
320 322 323 324 324 323 324 325 324 322 321 320 317 314 311 308 305 302 301 299 297 296 301 300 298 296 294 294 294 293 293 293
317 317 318 318 319 319 318 319 320 320 317 314 312 307 305 302 300 299 298 298 299 300 300 298 295 294 294 293 293 292 292 292
315 315 316 317 318 318 317 317 315 314 312 310 306 303 300 298 298 299 301 301 300 298 295 293 293 292 292 292 291 291 291 291

GFSFLT1_850_thetae_051.txt.gz
Theta_e
321 322 320 318 321 323 321 319 319 319 317 313 313 316 322 324 323 323 322 323 320 319 322 322 320 320 319 317 313 310 308 305
323 320 320 319 320 324 324 324 323 321 316 313 313 317 316 318 324 323 323 322 318 319 321 322 321 319 318 314 310 310 306 306
327 323 321 320 321 321 322 325 324 320 315 313 316 318 320 323 324 325 324 321 318 319 320 321 319 318 315 311 310 307 306 305
329 328 327 325 322 322 322 324 324 324 319 316 316 322 324 325 325 324 324 320 318 320 320 319 318 315 311 311 309 306 305 304
328 329 329 329 327 325 323 323 323 325 325 322 321 322 324 323 323 324 323 319 319 320 320 317 314 312 311 311 307 306 305 305
326 327 328 329 327 326 326 325 325 325 327 327 324 323 323 324 324 324 321 319 319 320 319 315 313 312 311 308 306 306 309 305
326 326 328 328 328 328 327 327 327 327 327 326 325 324 323 323 323 325 323 320 319 319 316 314 312 312 310 307 307 307 306 308
326 327 327 328 329 329 328 327 327 327 327 326 325 323 323 324 325 324 323 321 319 318 315 313 312 311 312 309 309 306 307 304
328 327 327 328 328 329 329 329 328 327 327 326 326 321 322 324 326 324 323 321 320 318 316 314 313 313 312 307 306 306 302 296
322 327 328 328 328 328 328 329 328 328 327 327 326 323 321 321 322 324 322 321 319 317 316 313 313 312 305 306 306 301 295 294
319 320 323 325 327 326 327 328 328 327 325 324 326 325 323 323 323 324 323 322 318 316 314 311 309 303 306 305 297 296 297 298
321 321 322 322 323 323 324 325 325 326 325 324 324 324 324 324 324 323 323 321 318 316 312 310 307 306 304 297 297 300 299 295
323 322 323 323 323 323 323 323 323 323 324 324 325 324 323 323 323 321 320 320 317 316 310 307 306 305 299 300 302 298 294 294
323 323 323 322 322 322 323 323 324 325 325 325 324 323 323 322 321 321 319 318 317 313 306 306 302 299 302 302 299 296 295 294
325 326 326 326 326 326 325 326 326 326 326 325 325 324 321 320 319 318 316 313 311 307 304 303 302 302 301 299 298 296 295 294
323 324 325 326 327 327 327 327 327 326 326 324 322 320 319 317 315 312 309 306 304 302 301 301 302 300 300 299 297 294 294 294
320 321 322 322 322 322 322 323 323 323 322 319 318 318 314 311 307 305 303 302 301 301 301 300 298 299 299 295 294 294 294 294
317 317 317 317 318 318 318 318 319 319 317 315 313 311 308 305 303 301 300 299 300 300 300 298 299 297 294 293 293 293 293 293
315 315 315 315 316 316 317 316 315 313 311 309 305 304 303 300 299 299 299 300 300 300 297 294 293 293 292 292 292 292 291 291

GFSFLT1_850_thetae_054.txt.gz
Theta_e
327 326 324 324 323 321 320 321 320 317 320 313 313 315 317 318 322 323 323 323 323 322 321 321 322 321 319 317 316 316 310 307
327 326 324 323 323 323 323 323 322 324 323 322 319 316 319 317 321 324 322 322 322 322 321 321 322 320 318 317 316 312 309 307
326 326 325 323 323 324 324 324 325 326 325 324 321 320 321 319 321 321 322 323 322 322 320 321 322 321 319 316 314 310 309 307
329 326 326 325 324 325 326 327 328 328 326 325 322 321 321 318 316 317 322 323 323 320 319 320 321 320 318 316 313 310 310 308
331 330 327 326 325 324 324 325 326 328 328 325 323 321 321 321 319 322 323 323 323 319 319 320 320 319 317 315 311 310 309 307
329 331 331 329 328 326 326 326 326 327 328 327 326 323 322 324 324 324 323 324 322 319 319 320 319 319 316 312 311 310 308 308
328 330 332 332 332 331 330 328 327 327 327 325 326 327 325 326 322 322 323 324 323 320 319 319 318 317 315 312 311 311 308 309
330 329 330 332 332 333 331 329 329 328 327 326 326 326 326 326 325 321 323 324 324 322 319 319 316 315 314 312 312 309 307 307
329 329 330 331 332 333 330 329 329 329 327 326 326 326 326 326 325 323 324 324 323 320 319 318 315 315 312 311 308 306 306 305
325 327 330 331 332 332 331 331 331 331 328 328 327 326 325 326 324 322 323 324 324 321 319 318 317 313 311 311 307 305 303 294
323 325 328 330 331 331 331 331 331 331 329 328 327 326 326 326 323 322 321 322 323 322 320 316 315 311 309 308 305 305 301 300
324 323 324 325 328 329 329 329 329 330 329 327 326 325 324 324 324 324 322 322 322 321 318 317 314 309 307 304 304 302 302 301
325 326 326 326 326 327 327 327 328 328 329 328 326 324 324 324 324 323 322 321 321 320 320 316 311 308 306 305 301 301 300 300
326 325 326 327 327 328 327 327 327 327 326 325 324 325 325 323 322 322 321 321 320 318 318 312 308 306 304 301 302 300 299 299
327 327 327 327 327 328 328 326 325 325 326 326 326 325 323 322 320 320 320 318 317 316 312 307 305 304 302 301 301 299 299 299
326 327 328 328 328 327 326 326 326 326 326 325 324 321 320 319 318 317 315 314 312 307 306 303 301 303 302 301 299 298 298 297
321 323 325 324 323 324 324 325 324 324 322 320 319 318 317 315 313 311 308 307 305 302 302 301 302 302 301 300 298 296 296 296
317 318 319 318 319 319 319 319 319 319 318 316 315 313 311 308 307 305 304 302 301 301 302 301 301 300 298 296 294 293 293 294
313 314 315 316 316 316 316 315 315 315 314 313 309 307 305 302 304 303 302 302 301 301 300 298 297 297 294 292 292 291 292 293

GFSFLT1_850_thetae_057.txt.gz
Theta_e
327 325 324 323 320 319 320 320 318 320 319 320 321 321 322 320 321 323 320 323 324 322 323 324 322 321 321 320 318 317 315 313
328 325 324 323 323 322 322 321 321 322 322 322 321 320 320 321 322 324 324 323 325 325 324 324 322 321 318 320 319 316 314 312
328 327 326 325 324 322 322 321 321 322 321 321 321 320 320 322 323 325 324 324 324 324 324 324 321 320 320 320 318 316 314 312
329 328 326 326 325 324 323 324 324 324 324 323 322 321 320 321 323 324 321 322 322 322 322 324 321 320 319 320 317 316 314 312
329 328 328 326 325 326 326 326 325 326 327 326 325 323 321 321 323 324 322 317 318 320 322 322 321 320 319 320 318 316 314 313
329 328 328 328 327 326 326 327 327 328 328 327 327 325 323 323 324 325 322 318 321 323 323 322 320 319 319 318 316 315 313 312
329 330 329 328 328 328 327 327 327 327 327 329 328 327 326 323 324 327 326 324 323 323 322 320 319 319 318 317 315 313 313 311
327 329 331 330 330 329 329 329 328 328 328 328 329 329 329 328 326 327 325 324 325 322 322 322 319 319 316 314 314 313 311 310
329 328 329 331 332 332 332 331 331 330 329 330 330 330 330 330 329 328 327 326 324 323 323 323 318 315 314 314 313 310 310 307
327 329 329 330 332 333 334 334 333 332 331 330 329 323 330 330 328 329 328 325 324 322 323 322 320 317 313 315 314 309 307 306
325 327 329 330 331 333 335 335 334 333 332 331 331 331 330 328 327 327 326 323 322 322 322 322 319 315 315 315 309 307 306 306
325 326 327 329 331 333 335 335 334 333 333 332 331 330 329 326 326 327 325 323 322 322 322 320 317 316 314 311 307 306 305 304
326 326 326 327 330 332 333 333 333 333 333 332 330 329 328 328 327 326 326 323 323 322 321 319 316 315 312 308 307 305 303 303
327 329 329 328 329 329 330 331 331 331 331 330 329 328 327 329 326 325 323 323 321 320 319 318 314 309 307 304 303 304 302 301
323 325 327 329 330 330 330 330 330 330 329 329 327 327 324 323 321 319 320 319 318 317 317 314 310 307 305 303 303 302 301 300
325 325 327 329 330 331 329 328 328 326 324 323 324 323 321 320 319 319 318 316 316 314 312 309 305 303 303 303 302 301 300 299
325 328 330 331 329 328 324 321 324 323 323 322 321 320 318 316 316 314 314 313 311 309 306 304 304 303 303 302 300 300 298 298
324 327 328 326 324 323 321 317 319 320 318 317 315 312 312 311 309 307 307 307 305 304 303 303 302 301 299 298 296 295 294 294
322 323 322 320 319 317 316 314 312 311 310 311 310 308 307 305 305 304 303 302 302 302 301 299 299 299 297 296 293 292 291 293

GFSFLT1_850_thetae_060.txt.gz
Theta_e
326 324 322 320 318 318 317 316 315 315 314 315 318 320 317 317 318 321 323 320 316 315 318 321 322 321 321 320 319 318 317 316
326 325 323 321 319 318 316 316 316 315 316 317 320 322 321 316 320 319 321 319 319 322 323 322 323 322 322 321 320 319 317 315
326 324 324 321 318 319 319 317 316 317 319 318 322 320 317 315 318 320 321 321 321 322 322 324 324 323 323 319 320 320 318 316
328 325 324 322 321 320 321 318 319 321 324 321 321 320 319 319 320 320 323 321 320 321 322 321 323 324 321 319 319 319 317 315
329 327 325 325 323 323 322 321 321 321 322 322 321 322 322 321 320 322 322 320 321 322 323 322 320 320 321 320 319 319 316 315
330 328 327 326 326 324 323 322 322 323 323 324 324 323 322 321 321 323 324 324 322 319 321 319 320 320 322 321 320 319 314 314
330 329 328 327 326 326 325 324 325 325 325 324 326 327 325 323 323 323 324 324 323 319 318 319 322 323 322 321 320 318 314 314
330 330 329 329 328 326 326 325 326 326 327 328 328 326 328 326 324 324 324 325 325 323 322 322 322 322 321 320 319 315 314 314
328 330 329 329 329 328 327 327 326 327 328 328 328 329 328 327 326 325 325 325 325 325 323 322 322 322 320 319 318 314 314 313
329 328 330 330 329 329 329 329 328 328 328 328 328 327 322 329 328 327 328 326 327 326 324 324 322 322 320 317 314 313 313 314
325 329 329 331 331 331 330 330 330 330 330 330 329 325 327 327 326 329 327 328 327 325 324 323 322 321 318 314 315 314 314 311
325 326 329 329 331 332 333 333 333 334 333 333 331 330 330 328 328 327 325 326 325 325 321 321 320 319 316 315 314 313 310 308
326 326 327 330 330 332 335 336 336 335 334 333 332 331 330 327 326 325 324 324 322 322 320 320 319 318 315 314 312 309 306 305
326 327 326 327 330 332 335 335 335 334 332 330 330 329 328 327 326 327 324 322 321 320 319 318 318 315 312 311 308 306 304 304
326 328 328 328 329 330 331 332 333 332 331 331 328 329 327 325 324 322 321 320 319 318 318 316 313 312 309 307 305 304 304 303
323 326 329 330 330 331 331 331 331 331 330 330 328 327 324 323 321 320 318 317 317 316 314 313 310 307 305 304 303 303 302 301
323 325 328 329 331 331 330 330 329 329 328 327 325 323 320 319 318 315 315 313 312 312 310 308 307 304 303 302 301 300 299 298
322 326 329 331 331 329 327 326 324 324 323 322 320 317 315 313 312 310 310 309 307 306 305 304 303 302 300 298 296 295 294 293
323 327 330 328 326 323 322 318 318 318 316 313 313 312 310 308 307 307 305 304 303 303 302 300 299 299 297 296 295 294 293 290

GFSFLT1_850_thetae_063.txt.gz
Theta_e
323 321 319 318 318 318 317 317 316 314 314 317 317 315 313 313 318 318 315 315 315 318 320 319 321 321 321 320 320 319 317 316
324 321 319 318 317 317 317 318 317 317 318 318 314 312 313 313 316 315 319 319 320 317 314 317 319 320 321 321 321 320 318 317
326 323 319 319 318 317 317 317 317 318 316 314 313 316 314 314 314 318 319 320 321 318 316 318 320 322 322 322 322 321 320 318
326 323 321 319 318 317 316 316 316 316 316 317 318 320 320 320 316 319 319 320 319 319 318 319 320 322 323 322 322 321 319 319
325 323 323 317 316 316 316 316 315 316 318 318 319 321 321 318 314 314 316 318 319 320 320 320 321 321 322 321 321 322 320 320
325 324 324 323 318 317 316 316 316 319 320 322 322 321 320 317 318 320 319 319 320 321 321 321 321 322 323 321 320 321 321 319
328 325 324 323 323 322 318 316 317 317 320 322 323 322 321 321 321 321 321 322 322 323 323 323 322 322 322 320 321 322 321 320
329 327 325 324 324 324 323 321 318 321 323 322 322 324 324 323 322 322 321 321 322 322 323 323 321 320 319 322 323 322 320 319
329 329 328 327 325 325 325 324 323 322 322 324 324 323 325 327 325 324 323 323 323 323 324 324 322 321 322 322 321 320 320 316
329 329 329 328 327 326 326 326 325 323 324 325 326 326 327 326 327 326 325 324 324 325 324 324 323 322 322 322 320 319 317 315
330 329 329 329 328 328 327 327 327 325 325 325 326 328 329 328 328 327 326 326 325 325 325 325 323 322 321 320 319 316 315 314
326 329 330 329 329 329 328 328 328 327 327 326 327 327 327 327 326 324 324 320 325 325 325 324 322 321 319 319 318 315 314 314
324 326 328 329 329 329 329 329 329 328 329 328 328 329 328 328 326 324 325 325 324 325 323 321 320 320 319 318 315 314 313 310
325 324 325 329 330 330 330 330 330 329 329 330 330 326 321 327 325 327 325 323 324 321 320 320 319 318 317 316 311 311 308 307
325 326 325 326 330 333 333 332 327 324 324 330 330 329 328 328 327 325 324 322 321 320 320 319 319 316 314 311 309 307 305 305
326 326 327 327 328 330 332 332 331 329 330 330 330 330 329 327 325 323 321 321 320 319 318 317 314 311 309 308 307 305 304 303
326 327 329 328 328 330 330 331 331 330 329 329 329 326 326 324 323 322 320 319 317 316 315 312 311 310 307 305 304 303 302 300
324 328 329 329 326 328 330 330 328 328 328 326 325 324 323 321 321 318 317 315 312 312 309 307 306 305 303 302 301 298 295 293
321 327 328 329 329 329 330 329 327 325 323 323 322 321 319 317 315 313 312 310 308 305 304 303 301 300 299 298 296 294 293 292

GFSFLT1_850_thetae_066.txt.gz
Theta_e
323 320 320 319 319 321 321 322 319 317 314 315 317 320 317 316 315 314 315 316 315 316 316 315 315 320 320 321 320 319 319 318
323 320 320 319 317 318 320 320 318 316 315 316 316 316 316 315 314 314 318 317 315 314 313 314 317 318 318 320 320 320 320 318
324 321 319 319 318 318 318 318 316 315 314 315 316 315 315 314 314 316 318 319 319 315 314 315 313 315 320 321 321 321 320 319
325 321 319 319 318 318 318 317 317 315 315 315 317 316 315 314 314 316 317 316 317 318 318 318 315 318 320 320 322 322 322 321
326 324 319 319 318 318 318 318 318 317 316 318 317 314 314 314 313 315 315 313 315 316 317 317 317 319 319 319 321 322 322 322
326 325 321 317 318 317 318 318 318 318 317 315 314 314 313 313 314 315 312 313 317 318 318 318 317 319 320 320 321 322 322 321
327 326 324 317 317 317 317 317 317 316 315 315 316 317 317 316 314 313 313 312 315 316 317 319 319 320 320 320 322 322 321 320
327 326 324 322 317 316 316 316 316 315 316 318 316 317 318 318 317 316 316 318 319 320 320 321 322 323 323 322 323 322 321 320
326 326 327 324 321 318 316 316 315 316 316 318 319 320 321 321 321 321 321 321 321 321 321 322 323 323 323 323 322 321 320 322
327 325 326 326 323 322 321 318 316 315 315 316 319 320 322 323 323 323 322 322 321 321 322 322 323 323 322 321 321 321 321 320
327 327 327 327 326 323 322 322 322 320 318 317 321 321 321 322 322 323 325 323 322 322 322 323 324 323 323 321 320 319 320 319
325 328 328 328 327 324 324 324 323 323 323 322 321 323 323 324 324 324 325 324 323 319 320 320 323 323 323 320 320 318 318 316
327 328 328 328 328 326 326 325 324 323 322 322 323 323 324 325 326 326 321 318 321 324 321 320 325 324 322 320 318 317 316 314
324 325 327 328 328 328 327 326 325 325 326 326 325 325 326 325 326 326 322 321 319 320 323 324 324 321 320 319 318 316 314 312
324 325 325 326 327 329 328 328 327 327 327 324 328 328 324 321 321 321 321 324 323 324 323 322 321 319 319 318 315 314 311 309
324 324 325 325 326 329 328 328 328 328 328 323 322 323 323 327 325 323 325 325 322 321 320 319 319 318 317 313 313 309 308 305
323 324 324 324 323 326 331 330 330 329 329 325 324 322 327 326 327 325 324 322 321 319 319 318 317 315 312 310 308 306 304 303
324 325 324 324 323 322 325 331 332 330 328 325 324 326 324 325 322 320 320 319 318 316 315 314 312 310 309 306 304 303 303 302
322 325 324 325 325 325 327 329 330 329 327 326 326 322 322 321 319 319 317 316 314 313 311 310 309 307 304 303 302 300 298 294

GFSFLT1_850_thetae_069.txt.gz
Theta_e
325 321 319 319 320 321 322 322 323 322 319 317 319 320 320 319 317 315 315 315 316 315 315 317 317 318 318 319 320 319 319 318
324 321 319 319 318 319 321 322 322 320 319 318 321 319 319 319 317 317 317 317 316 316 317 318 318 317 315 317 320 320 319 318
325 322 319 319 318 318 320 321 322 317 318 320 319 317 318 316 315 317 318 316 315 315 318 319 317 315 314 317 320 321 320 319
326 324 319 319 318 318 319 319 320 317 316 320 319 319 318 316 315 315 315 314 315 315 318 317 316 315 316 317 320 321 321 320
326 325 322 319 319 318 318 320 318 317 316 314 315 317 318 316 315 314 314 315 316 318 319 319 318 318 318 316 318 320 321 322
326 326 326 318 318 318 318 318 318 316 315 314 315 316 315 315 315 314 314 315 316 315 316 317 316 317 320 319 319 319 320 321
326 327 326 322 318 318 318 318 318 317 315 314 315 315 316 316 316 316 313 314 315 315 313 313 315 318 319 320 321 321 321 321
326 326 327 325 319 317 317 318 318 318 318 316 316 317 317 316 315 315 314 314 315 314 311 312 314 316 318 320 321 322 321 322
326 325 327 327 324 316 315 316 317 318 318 317 316 315 314 314 314 314 314 314 313 312 312 313 317 319 320 322 322 322 322 322
326 325 327 328 326 321 316 315 315 317 316 316 316 315 316 316 316 316 315 315 317 318 319 319 320 320 321 320 322 322 322 322
326 325 326 328 327 325 320 316 315 316 316 315 315 316 316 316 317 318 320 321 322 322 321 321 321 321 321 322 323 321 320 320
326 327 327 327 326 326 324 320 317 316 316 315 315 316 317 318 319 320 321 322 322 323 323 320 322 322 323 323 323 321 320 317
326 328 327 326 325 325 326 324 320 319 317 316 315 315 315 316 318 320 321 322 323 318 316 316 321 322 321 320 323 322 320 318
324 325 326 326 325 325 325 325 325 323 321 320 319 322 320 321 319 319 322 323 323 318 316 319 323 322 321 322 322 321 318 317
324 325 325 326 326 327 327 327 326 325 325 323 323 323 323 322 323 322 323 325 325 320 319 319 319 320 322 322 321 320 318 316
323 324 324 324 325 326 327 327 327 326 325 325 324 324 324 325 324 324 322 323 323 322 322 321 321 323 322 321 319 318 316 312
321 323 324 323 322 323 325 327 327 327 326 326 325 326 326 327 327 326 323 323 322 321 322 323 321 321 320 319 318 315 313 309
321 322 324 322 322 321 321 323 326 327 327 327 327 326 326 322 324 325 322 321 324 323 321 320 320 319 318 316 313 312 309 306
320 321 323 323 323 323 323 324 326 327 328 328 327 326 326 324 323 324 325 324 324 322 321 319 318 316 314 312 309 307 305 303

GFSFLT1_850_thetae_072.txt.gz
Theta_e
325 323 319 319 320 321 322 323 322 323 322 320 319 318 318 321 318 316 315 315 315 316 315 316 316 317 318 319 318 318 319 318
324 323 319 319 320 320 321 322 322 322 321 318 319 320 321 319 320 316 315 315 315 314 314 314 317 317 318 319 319 320 319 319
325 324 320 320 319 319 320 321 322 322 321 320 322 322 321 321 320 317 315 315 315 315 315 315 317 318 318 319 319 319 320 320
325 325 322 319 318 318 320 321 322 322 321 319 318 319 321 318 317 316 315 316 315 315 316 315 317 318 318 318 318 319 319 320
324 325 324 319 319 317 318 320 320 322 320 319 318 319 319 318 317 316 316 317 317 316 316 315 314 317 319 319 317 315 317 320
324 325 325 323 318 318 319 319 321 321 317 318 320 319 316 317 317 315 316 318 318 317 315 314 314 316 320 320 320 319 319 319
324 325 325 325 319 317 318 320 321 319 317 317 320 318 316 317 316 315 315 314 315 314 314 315 315 315 315 317 318 318 320 320
323 324 325 325 323 317 317 318 320 319 317 316 315 316 318 318 316 315 315 315 315 314 314 315 315 314 313 314 316 318 320 321
323 324 325 325 326 320 316 317 318 319 318 317 315 315 315 316 317 316 315 316 316 314 314 315 315 314 312 313 314 317 320 321
322 324 325 325 325 326 318 315 316 318 318 318 316 315 315 316 316 316 316 316 316 315 314 314 314 313 313 317 319 320 319 318
322 324 325 326 324 326 326 318 315 316 317 318 317 317 315 315 315 316 314 314 315 314 314 313 315 319 321 321 321 321 318 319
323 323 325 326 325 325 327 325 319 315 315 316 317 317 317 316 315 315 315 315 315 315 316 320 322 321 322 321 320 321 322 322
324 324 324 325 325 325 326 327 325 322 317 315 315 315 315 314 314 315 315 316 316 319 320 321 321 320 320 318 319 322 321 322
323 325 325 325 326 326 326 326 326 326 323 317 316 315 315 316 315 315 316 316 317 319 320 318 322 317 318 319 319 321 320 321
321 322 323 323 325 326 325 326 325 325 325 323 320 318 317 317 316 316 316 316 316 320 321 322 322 316 317 320 319 320 320 320
321 320 322 323 323 324 324 324 325 325 325 325 325 325 321 319 318 318 318 320 321 321 320 320 323 317 321 321 318 320 321 319
321 320 322 322 323 323 323 322 323 325 325 326 325 325 325 324 322 321 321 321 323 323 322 321 323 323 321 321 321 320 319 318
321 321 320 321 322 322 322 321 322 323 323 325 326 325 325 325 324 324 323 323 324 324 324 323 322 321 321 321 320 317 316 315
320 321 321 321 321 323 322 322 323 323 324 325 326 326 326 325 325 324 324 324 321 322 321 320 320 320 320 319 319 316 313 311

GFSFLT1_850_thetae_075.txt.gz
Theta_e
326 326 323 318 321 322 323 323 322 323 322 321 321 322 321 320 315 312 311 315 317 317 316 317 318 318 317 316 318 318 318 318
327 325 322 319 320 322 322 322 322 322 322 319 321 321 323 317 318 312 316 316 316 318 317 317 317 317 317 317 318 318 318 318
326 324 323 319 319 321 321 321 321 322 323 320 319 320 321 319 319 315 316 316 316 317 316 314 314 315 318 318 319 319 319 318
325 324 323 320 319 319 321 321 321 322 322 322 320 319 319 319 320 315 315 315 315 315 314 314 314 316 318 319 319 319 319 319
325 324 324 323 318 318 320 320 322 321 322 322 319 320 319 319 318 316 315 316 315 314 314 314 316 315 317 316 316 317 319 319
323 324 324 324 319 317 319 320 322 322 321 321 321 321 320 321 319 317 315 315 316 315 315 315 316 315 316 315 317 319 319 320
322 323 324 324 320 317 318 320 321 321 321 321 321 319 320 320 318 317 316 315 315 315 316 315 316 317 315 317 316 317 317 317
322 323 324 324 324 317 317 319 320 321 321 319 319 319 319 320 318 317 316 316 315 316 318 317 316 316 316 316 315 315 316 317
322 323 324 324 324 321 316 318 319 321 320 318 318 320 319 318 317 318 317 316 316 317 318 317 317 316 315 315 315 313 313 315
321 322 323 324 324 324 319 315 317 319 319 317 316 318 319 318 316 316 317 316 315 315 314 314 315 314 315 315 315 314 318 319
321 322 323 324 324 324 325 317 314 316 318 318 317 316 316 318 318 317 317 317 316 315 315 315 316 316 315 314 314 314 320 321
321 322 323 323 324 324 325 325 318 314 315 317 317 317 316 316 316 316 317 317 316 316 315 315 316 315 314 314 316 320 321 321
323 323 323 323 324 325 325 325 325 323 316 314 316 317 317 316 315 314 315 315 315 315 314 314 314 314 314 314 318 319 320 320
320 323 324 324 324 324 325 325 325 326 322 319 315 315 317 317 316 316 315 315 315 315 315 315 315 317 320 320 321 318 318 319
319 321 322 323 324 324 324 324 325 325 326 324 322 318 315 315 316 316 316 315 315 315 316 316 316 318 319 319 321 318 320 321
320 320 320 322 322 322 322 324 325 325 325 325 325 325 321 316 315 315 315 315 315 315 315 315 316 318 320 321 321 318 319 319
319 320 320 320 321 321 322 321 322 323 324 324 324 324 324 324 320 317 316 316 315 315 316 317 321 319 319 320 322 320 321 319
320 320 320 321 320 321 322 321 321 322 322 322 323 324 324 324 324 322 320 318 317 317 318 320 321 323 322 322 322 321 320 320
318 319 320 321 321 321 321 322 321 321 322 322 323 323 324 324 323 323 322 321 321 322 322 322 323 323 323 322 321 320 319 317

GFSFLT1_850_thetae_078.txt.gz
Theta_e
329 327 326 324 321 321 322 322 323 323 323 322 323 323 319 316 314 314 311 312 315 314 310 310 310 310 313 313 313 310 312 312
328 327 325 322 319 320 321 323 323 323 322 322 323 321 318 315 315 314 314 311 315 309 311 314 313 316 318 318 316 313 314 314
327 326 325 323 319 320 322 322 323 323 322 321 323 321 317 319 316 311 308 309 310 310 313 315 317 317 318 318 317 316 317 316
327 325 324 323 319 320 323 321 323 323 322 321 321 322 320 320 315 310 308 310 315 314 316 317 317 316 315 317 318 318 318 319
328 325 324 323 321 318 320 321 322 321 322 321 321 321 322 316 315 311 314 316 317 317 316 316 317 314 314 316 318 319 319 320
327 326 325 323 322 318 320 321 322 322 321 321 321 321 321 316 317 314 316 316 316 316 316 314 314 314 314 317 318 319 318 320
327 326 325 324 323 319 320 322 322 321 323 322 322 321 320 319 319 316 315 315 315 315 316 315 314 314 316 315 316 317 317 319
327 326 325 324 323 321 318 321 321 321 322 322 321 321 321 320 319 319 316 315 315 315 316 315 314 315 316 315 316 317 318 317
326 326 326 325 323 321 316 321 322 320 322 320 321 321 321 321 320 320 318 315 316 315 316 316 315 316 316 317 317 317 319 315
326 326 326 326 324 323 316 318 322 322 321 321 321 321 320 320 320 320 318 317 316 316 316 315 315 317 318 317 317 318 319 319
325 326 326 326 325 323 321 315 319 322 321 321 321 320 320 320 320 320 319 317 317 316 317 318 318 317 318 318 319 319 319 320
325 325 326 326 326 324 323 319 316 320 321 322 320 320 321 320 320 319 319 319 318 318 318 318 318 319 318 318 319 320 320 316
326 326 326 326 326 325 324 323 321 318 318 321 319 319 320 320 319 319 318 318 318 319 318 318 318 318 318 318 318 316 315 315
325 327 327 326 326 326 325 324 324 322 320 318 319 319 318 318 317 319 320 319 319 319 319 319 319 318 318 318 316 315 314 316
321 325 327 327 326 326 325 325 324 324 323 321 319 316 316 317 317 317 318 318 318 318 319 319 318 318 318 314 315 316 318 320
320 321 325 327 327 327 326 325 324 324 324 323 324 321 318 317 317 317 317 317 318 317 317 317 317 318 316 315 316 317 318 319
320 320 320 324 326 327 326 325 323 324 324 324 324 324 323 321 319 317 318 318 318 319 319 318 316 316 315 315 316 317 319 321
320 320 319 320 322 324 323 322 324 323 323 324 324 324 324 324 322 321 319 319 318 318 318 317 317 317 315 316 319 318 318 319
319 320 319 319 319 321 322 325 322 322 322 322 322 323 323 323 322 322 322 320 319 319 319 319 319 317 317 318 320 321 321 321

GFSFLT1_850_thetae_081.txt.gz
Theta_e
331 331 329 329 327 326 326 324 324 323 324 323 323 322 322 321 319 318 318 315 313 313 315 316 315 314 314 312 315 316 316 316
331 331 330 329 327 325 325 323 322 323 323 322 322 321 319 317 315 314 314 313 313 314 313 314 313 314 315 311 311 313 314 315
331 331 330 328 326 325 325 323 323 323 323 322 323 321 319 313 313 313 314 314 313 312 312 312 313 314 312 312 314 314 316 316
331 331 330 329 326 324 324 321 324 324 323 322 322 322 317 314 313 312 310 311 311 313 314 314 315 314 316 317 317 319 321 318
330 331 330 329 327 324 321 321 323 323 323 323 321 320 317 315 313 312 313 314 314 315 315 315 312 318 319 317 318 318 320 319
329 330 329 328 327 325 321 321 324 323 323 322 322 320 317 315 315 314 314 314 313 314 312 314 315 317 317 317 317 317 318 320
328 330 329 328 327 324 322 321 322 322 323 322 322 321 319 317 318 314 310 308 309 310 313 316 317 316 316 316 316 317 318 318
327 329 329 328 327 325 323 323 323 322 322 322 322 322 320 318 318 313 309 307 310 314 316 317 317 316 316 315 315 316 317 317
326 328 329 328 327 326 323 323 323 322 322 322 321 322 322 321 318 314 310 310 313 316 317 316 315 315 316 315 316 316 316 317
326 327 329 328 328 327 324 324 325 324 324 322 322 323 322 321 320 316 313 314 315 316 316 316 316 316 316 315 316 317 316 317
326 327 329 329 329 327 326 323 325 325 324 323 323 322 322 322 322 320 318 316 315 315 315 315 315 315 316 315 316 317 317 317
326 327 328 329 329 328 327 324 323 325 325 324 324 323 322 323 322 322 321 321 320 319 318 316 316 316 316 316 316 317 319 318
327 327 328 329 329 329 328 326 323 323 325 324 324 324 324 322 321 322 322 321 321 319 319 318 317 316 317 317 317 319 319 320
325 328 328 328 329 329 328 328 325 323 324 324 324 324 323 323 322 322 322 322 322 321 320 319 318 319 320 319 320 320 320 319
322 325 328 328 328 329 329 329 327 326 324 324 324 324 323 323 323 323 322 322 321 321 321 320 320 320 320 320 320 320 319 319
321 321 324 328 329 328 329 329 328 328 326 325 324 324 324 323 322 323 323 322 322 321 321 321 321 321 321 320 320 320 320 320
320 321 321 322 328 329 329 329 328 328 327 326 325 324 324 323 323 322 321 321 322 322 321 321 321 320 320 319 320 321 320 320
320 320 321 321 321 326 329 329 329 328 328 328 327 326 325 324 323 323 322 322 321 320 320 320 320 320 319 319 318 319 319 319
320 320 319 321 321 322 324 328 329 328 328 328 327 327 326 325 325 324 323 322 322 322 321 321 321 321 320 320 320 319 319 318

GFSFLT1_850_thetae_087.txt.gz
Theta_e
328 329 330 330 330 330 329 328 326 323 324 323 324 322 323 322 324 325 326 328 328 327 325 320 318 314 320 320 319 319 318 318
328 329 330 330 330 330 328 327 326 324 324 323 323 321 323 322 322 324 324 324 325 325 323 322 318 316 321 320 318 318 318 318
329 330 331 331 330 329 328 327 325 323 324 324 323 321 322 321 322 324 326 326 325 325 321 318 317 321 321 319 317 317 318 317
329 330 331 331 330 329 328 327 323 323 323 325 323 321 321 320 320 322 323 323 323 321 320 322 321 321 320 317 316 317 317 317
330 331 331 331 330 329 328 325 321 322 323 324 322 321 322 321 321 321 322 323 323 321 320 321 320 320 320 317 315 313 314 314
330 331 331 331 331 330 328 325 320 320 322 323 321 321 321 321 320 321 320 319 320 320 320 318 316 315 317 313 313 313 315 314
328 330 331 331 331 330 327 325 319 323 322 323 321 321 321 321 321 318 320 318 318 318 316 315 315 315 314 313 314 314 313 314
331 332 332 331 331 330 328 326 320 322 322 322 322 320 321 321 321 319 318 318 317 314 314 314 313 313 313 314 315 313 313 315
331 332 332 331 331 330 329 326 319 323 322 321 321 321 321 321 320 320 318 317 314 314 315 315 314 314 313 313 314 315 315 318
331 332 331 331 330 329 328 327 321 322 323 322 321 321 321 321 320 319 317 316 314 314 314 315 315 313 312 313 316 316 317 318
329 329 331 330 330 329 328 328 323 318 322 322 322 321 321 321 321 320 317 316 315 314 313 313 313 312 314 314 314 316 317 317
325 330 330 330 330 329 329 328 324 321 321 322 322 322 322 322 321 321 320 317 315 315 314 313 312 312 314 315 313 315 316 317
326 328 330 330 330 329 329 328 326 322 324 322 322 323 321 322 322 322 321 320 318 316 314 314 314 314 314 315 313 314 316 316
320 329 330 330 330 329 329 328 328 325 323 324 323 323 322 322 322 322 321 321 320 319 315 314 314 312 313 312 312 313 314 316
320 321 327 330 330 330 329 329 329 328 325 325 325 324 322 323 322 321 322 321 321 321 320 320 319 314 310 311 312 312 313 316
320 321 321 321 326 329 330 330 329 329 328 324 326 326 325 324 322 321 322 322 321 321 321 322 321 319 316 311 310 311 314 315
321 321 322 323 323 322 326 330 330 329 329 328 325 325 326 326 325 324 323 322 321 322 322 322 322 321 320 318 316 313 314 314
321 321 322 323 323 323 322 324 328 330 330 329 329 326 325 326 326 326 325 324 324 323 322 324 323 323 322 321 320 319 320 320
320 320 320 321 322 321 322 322 322 326 330 330 330 329 327 325 326 326 326 326 326 325 324 323 323 323 323 323 322 322 321 321

GFSFLT1_850_thetae_090.txt.gz
Theta_e
324 327 328 328 329 330 329 327 329 327 324 322 323 323 325 324 325 328 329 328 328 328 328 325 324 319 307 309 314 319 319 319
325 327 328 329 330 330 329 328 328 327 323 322 322 322 322 322 323 323 324 329 329 327 328 325 324 309 312 314 312 313 318 319
325 328 329 330 329 330 330 329 327 326 324 320 322 321 323 321 321 323 323 325 328 327 326 325 323 308 320 318 318 318 318 319
325 329 329 330 330 330 330 329 326 326 323 323 323 321 320 320 320 321 323 324 325 327 327 325 318 312 318 319 319 319 318 319
323 329 330 330 330 330 330 328 327 325 321 323 321 322 320 320 320 322 322 324 324 324 326 321 317 313 320 319 320 318 318 318
324 329 329 329 330 330 329 328 327 324 319 322 322 321 320 320 320 320 321 321 321 321 321 319 317 316 320 319 318 316 317 317
322 326 330 330 330 330 329 328 326 322 319 324 322 323 321 321 321 321 322 321 322 322 321 321 317 321 318 319 317 317 317 316
327 329 330 330 330 330 329 328 325 321 318 321 323 322 321 321 321 321 321 322 322 321 321 322 319 321 320 319 317 316 316 316
328 328 329 330 330 330 330 328 325 321 317 320 323 323 321 321 320 321 321 320 321 321 320 320 319 319 320 318 316 313 313 313
329 329 330 330 330 330 330 328 325 322 316 319 321 321 320 320 320 320 320 320 319 319 319 318 316 315 315 316 315 313 313 313
330 330 330 330 330 330 330 328 326 323 317 319 321 321 320 320 321 321 320 320 319 319 318 315 315 314 314 314 314 313 313 314
330 330 330 330 331 330 329 328 327 325 319 317 320 322 320 320 321 320 320 320 319 318 317 314 314 314 314 313 313 314 313 315
330 330 331 331 330 330 329 328 327 326 323 317 317 321 321 320 320 321 321 320 320 317 316 315 314 314 316 314 313 313 312 313
328 329 329 329 330 330 329 329 328 327 325 319 318 319 322 321 320 321 321 321 320 319 316 316 315 314 314 314 313 313 313 314
322 327 328 328 328 328 327 327 328 328 327 324 321 320 319 319 321 321 321 321 321 321 319 318 317 316 314 314 314 313 313 314
323 323 322 323 326 328 328 328 328 327 327 327 326 324 321 322 321 320 321 320 321 321 321 320 320 319 317 314 314 314 314 314
322 322 322 322 322 322 325 327 328 327 327 326 326 326 324 324 324 323 322 321 321 320 320 320 320 320 321 320 318 317 316 313
320 319 317 317 318 320 322 323 323 326 328 326 325 325 325 325 325 325 325 324 323 321 321 321 321 320 321 321 321 321 319 318
317 316 315 315 317 318 320 322 322 325 326 326 325 324 324 324 325 325 325 325 325 324 323 322 322 322 321 321 322 322 320 320

GFSFLT1_850_thetae_096.txt.gz
Theta_e
319 318 318 321 325 326 329 330 328 326 324 326 326 327 325 324 325 326 328 327 326 325 323 324 325 322 325 324 324 323 321 320
319 320 318 318 325 326 328 330 329 327 326 325 325 325 325 324 324 325 326 326 327 326 325 326 325 323 324 321 321 321 320 320
319 319 317 318 322 325 327 330 329 328 327 325 325 324 322 322 322 323 324 327 325 327 327 326 326 324 326 320 319 321 319 319
319 320 317 317 320 323 327 329 329 329 327 326 325 323 322 322 321 322 323 324 326 326 326 326 327 325 326 321 319 319 319 319
319 320 317 317 320 324 328 329 329 329 328 327 325 323 321 320 321 320 320 323 324 323 326 326 327 325 325 324 318 317 319 319
320 319 319 318 323 325 328 329 329 329 328 328 324 323 320 320 320 319 320 320 321 322 323 324 326 325 325 324 318 313 313 317
320 319 319 320 323 328 329 329 329 329 329 327 324 322 319 321 320 319 320 322 320 322 323 322 325 323 324 324 318 312 308 316
320 319 319 320 322 326 329 329 329 329 329 327 324 320 320 321 319 320 321 321 322 321 322 322 323 322 323 322 318 311 312 316
319 319 319 319 321 325 328 329 329 329 329 327 324 319 320 321 320 319 321 321 321 321 321 322 323 323 323 322 316 311 312 315
317 319 319 319 321 323 327 329 329 329 329 327 324 318 320 321 320 320 320 321 321 322 321 320 321 322 322 321 316 313 312 314
323 320 319 321 323 325 327 329 329 329 329 327 324 318 318 320 320 320 320 320 321 321 321 321 321 321 319 317 315 313 316 317
326 322 323 324 324 325 326 328 329 329 328 327 324 318 317 319 320 320 320 320 320 321 321 321 321 320 318 317 316 316 317 316
326 326 325 325 325 325 326 327 328 328 328 327 324 319 318 319 320 320 320 319 319 320 320 321 321 321 320 319 317 317 318 319
325 325 325 325 324 325 326 326 327 327 327 326 325 323 318 318 319 319 320 320 320 320 319 319 320 320 320 319 319 319 318 318
318 321 323 324 325 325 326 326 327 327 326 325 325 324 322 319 318 318 318 320 320 320 320 319 319 319 320 320 319 318 316 316
313 315 318 321 323 324 325 326 326 326 325 325 325 325 324 322 319 319 319 318 318 319 320 320 320 319 318 318 318 317 317 315
307 310 314 315 320 320 322 324 325 326 325 325 324 324 324 324 323 322 321 321 320 320 319 319 320 320 320 319 318 317 316 315
308 307 309 312 317 317 318 322 322 324 323 322 322 321 322 323 324 323 323 324 323 323 323 322 322 321 320 320 320 320 319 318
310 310 310 311 311 312 317 319 320 321 320 321 320 321 322 322 322 322 322 322 323 323 323 323 323 323 323 323 322 321 320 320

GFSFLT1_850_thetae_099.txt.gz
Theta_e
318 318 318 318 318 323 328 329 328 330 325 323 324 326 326 325 325 326 326 328 325 323 322 322 323 326 324 325 325 325 324 323
318 318 319 319 319 318 326 329 328 330 326 324 324 324 326 326 324 325 326 328 326 324 322 321 322 324 324 324 323 322 318 320
317 318 318 319 319 319 319 327 328 330 328 326 325 324 325 326 325 324 324 325 326 327 326 323 324 324 323 325 322 323 322 319
317 318 318 319 319 318 318 322 327 330 329 327 326 325 324 324 323 323 324 325 325 324 327 326 325 325 323 321 324 323 321 321
316 317 317 318 320 317 318 323 326 329 329 328 327 326 322 321 321 322 322 323 324 326 324 327 325 326 325 322 323 323 322 320
316 316 316 318 319 317 318 323 327 328 330 328 327 327 324 322 321 321 321 320 322 324 324 325 324 327 325 325 323 321 321 320
316 317 318 319 319 318 320 322 325 329 330 329 328 327 323 322 320 320 320 319 320 321 323 323 323 325 326 326 324 321 319 320
317 316 318 319 319 320 322 321 324 329 330 329 328 327 323 321 320 321 320 319 320 319 322 323 322 325 324 324 324 324 322 318
320 317 317 320 320 323 323 321 326 328 329 329 328 327 323 319 320 320 320 321 321 322 322 323 322 321 321 323 323 322 321 318
323 320 316 320 321 322 321 322 327 328 329 329 328 326 323 318 320 320 319 320 319 320 320 321 322 322 322 323 322 323 321 318
324 322 318 316 321 323 323 324 327 328 329 329 328 326 322 318 320 320 320 321 320 320 320 320 322 322 322 322 321 321 319 316
325 323 320 319 321 324 322 325 329 328 329 328 327 325 321 318 320 320 320 320 321 321 320 321 321 320 320 320 319 319 317 315
323 324 324 324 325 324 324 324 326 327 328 328 326 325 320 317 319 320 320 320 320 320 320 320 321 320 320 319 318 317 316 315
315 321 322 322 322 323 322 323 325 327 327 327 326 323 321 317 319 320 320 320 319 319 320 320 320 320 320 320 318 317 317 315
309 313 315 319 321 321 321 321 326 326 326 326 326 324 323 318 318 319 319 320 320 320 320 320 319 319 320 320 321 319 317 317
305 307 309 312 319 320 321 322 324 325 325 325 325 325 324 323 319 319 319 318 319 320 320 320 320 319 319 319 319 320 320 318
303 306 308 309 313 318 321 321 322 323 323 324 324 324 324 324 323 320 319 319 319 318 318 318 319 320 320 320 319 319 319 318
303 304 306 305 309 314 318 319 321 321 321 321 322 322 321 321 322 322 322 322 321 321 321 320 321 321 321 320 320 320 320 320
303 302 306 307 307 311 317 318 317 318 318 320 320 320 320 320 320 320 321 320 321 322 322 321 322 320 321 322 322 322 321 321

GFSFLT1_850_thetae_102.txt.gz
Theta_e
319 320 320 322 327 331 333 329 329 329 328 330 330 322 324 326 325 327 325 327 327 326 326 325 323 326 325 327 325 326 324 325
319 320 320 321 323 329 331 331 330 330 328 330 326 323 324 326 325 323 325 326 327 327 323 322 324 326 326 326 325 325 322 324
319 319 320 320 321 321 327 327 329 327 329 330 327 324 325 326 326 324 325 325 326 327 323 322 321 324 326 324 324 325 324 323
319 319 319 320 321 320 321 325 332 329 330 330 329 326 325 327 326 326 324 325 325 326 324 322 321 323 325 323 322 322 322 321
317 317 319 320 321 322 324 328 331 330 331 330 329 327 326 325 324 323 326 323 324 325 325 325 322 323 324 325 324 324 320 318
320 319 318 319 320 324 325 328 331 330 331 329 329 328 328 327 324 322 323 323 323 325 323 324 326 324 325 324 323 323 321 318
323 320 319 319 319 323 328 328 330 330 329 329 329 328 328 326 323 324 323 323 322 322 323 325 325 323 325 325 324 322 324 324
325 324 321 320 320 327 329 329 330 328 327 328 329 328 327 326 324 324 324 324 321 321 322 323 323 325 325 324 325 324 322 323
327 326 324 320 325 329 329 329 329 327 327 328 329 329 328 326 323 323 324 323 320 320 321 322 323 323 323 325 325 324 324 323
325 328 326 322 327 329 330 329 329 329 327 328 329 328 327 325 323 322 322 320 322 322 321 321 322 323 322 323 322 323 324 324
323 328 326 322 327 330 329 328 328 329 327 328 329 328 326 324 321 321 320 320 320 321 321 321 323 323 322 321 322 322 323 322
318 323 327 325 327 329 328 327 327 328 326 328 328 327 325 323 321 320 320 320 321 320 320 321 321 322 321 322 321 322 322 320
311 317 323 326 327 328 327 325 325 326 325 327 327 326 324 322 320 320 320 320 320 321 320 320 321 321 322 321 321 321 320 319
307 308 317 322 323 323 324 324 323 324 326 327 327 325 323 321 320 320 320 320 320 321 321 320 321 321 320 320 320 319 319 318
304 304 307 319 320 322 322 323 323 323 323 326 325 325 322 321 320 319 320 320 320 319 320 320 321 321 320 320 320 319 319 318
305 300 302 311 318 320 321 321 322 322 325 324 323 322 321 320 318 319 319 320 320 320 319 319 319 320 320 320 320 320 321 319
306 299 299 303 310 315 321 322 321 321 322 321 322 323 323 323 319 319 319 319 319 319 319 319 319 320 320 319 319 319 319 320
301 301 297 300 303 308 313 319 319 321 320 320 321 320 321 322 323 321 320 319 319 319 319 318 319 318 318 319 319 318 319 319
301 302 301 299 300 306 310 313 314 317 318 318 319 319 321 322 321 321 320 320 320 319 319 319 318 319 320 320 319 318 318 318

GFSFLT1_850_thetae_105.txt.gz
Theta_e
320 319 319 321 323 327 331 338 341 339 337 338 337 336 333 328 330 330 330 329 329 330 330 328 327 328 325 326 325 327 326 326
321 321 320 320 322 327 331 336 340 337 329 333 336 335 330 324 322 324 330 330 329 329 329 327 326 325 324 327 326 326 325 326
321 321 321 321 322 324 330 334 337 337 328 332 336 335 331 326 323 325 325 328 327 328 328 327 324 322 323 326 325 325 326 325
320 321 321 322 322 323 326 332 334 337 333 335 336 333 330 327 326 325 325 326 327 328 327 327 323 322 323 325 325 325 325 324
318 319 319 321 321 322 324 328 332 335 336 335 335 334 332 329 328 326 327 328 327 327 326 327 324 321 323 325 324 324 324 323
324 323 322 319 320 321 323 326 330 334 336 335 335 334 333 331 331 327 326 326 328 327 325 325 325 321 322 324 323 322 323 322
326 325 324 321 321 320 322 326 329 332 335 334 335 334 332 332 331 328 325 324 328 326 325 325 326 325 322 323 324 323 322 323
326 327 328 325 322 321 321 327 329 331 334 334 335 333 333 332 330 328 328 325 326 326 324 325 324 325 324 324 324 324 324 323
324 327 330 328 325 322 321 324 329 330 334 334 334 334 334 332 330 328 327 326 324 324 324 324 324 324 325 324 324 323 323 323
321 322 324 330 327 323 323 329 330 331 334 333 333 333 332 331 330 327 327 327 325 323 322 323 324 323 323 323 325 324 324 322
316 316 323 328 327 325 330 332 331 332 332 331 332 332 332 331 329 327 326 324 323 322 322 322 323 324 323 323 324 323 323 323
312 311 321 326 328 330 332 332 331 330 329 328 330 330 331 330 327 326 324 322 325 323 322 324 323 322 323 323 322 321 322 322
309 309 316 321 327 331 330 328 330 328 327 327 328 330 329 329 326 325 325 324 324 322 322 322 321 322 322 322 322 322 321 322
307 309 309 309 319 325 325 326 325 326 327 326 327 329 328 328 326 323 325 324 325 323 321 322 321 321 321 322 323 323 322 322
306 305 305 303 308 319 324 323 324 325 326 325 327 327 326 326 325 323 323 322 325 326 323 321 321 321 322 321 320 320 320 319
302 302 304 300 302 310 321 322 322 323 323 324 325 325 325 324 324 322 322 322 323 321 320 321 322 321 320 323 321 321 320 321
297 298 304 299 299 302 310 319 322 322 323 323 323 324 323 321 322 321 321 321 323 320 321 320 320 320 321 320 321 322 322 322
297 298 300 301 297 299 302 309 314 320 321 322 322 321 321 321 320 321 321 320 320 320 319 320 320 321 320 320 319 319 320 320
296 298 299 303 301 300 301 304 306 312 315 315 317 319 320 320 320 320 320 320 319 319 320 319 319 319 319 318 318 318 318 319

GFSFLT1_850_thetae_108.txt.gz
Theta_e
321 321 320 319 320 322 332 337 335 334 337 340 339 338 336 335 332 328 322 325 329 329 330 331 330 330 330 328 328 327 326 327
321 321 321 319 319 321 326 338 335 334 337 340 340 338 337 335 333 330 325 322 328 329 329 330 331 329 328 328 327 325 325 326
321 322 322 320 319 320 325 338 337 334 338 337 339 338 336 334 331 327 323 324 329 328 328 330 328 328 327 325 323 325 326 327
321 321 321 322 321 321 323 329 339 336 337 337 338 338 337 335 331 326 323 325 328 326 327 328 328 327 324 322 323 326 327 326
320 319 319 320 323 323 322 323 330 338 337 337 335 337 336 334 331 329 326 323 323 327 327 328 327 327 323 322 324 325 325 325
324 324 324 323 322 321 323 324 327 334 335 335 333 337 336 333 330 330 327 325 323 327 330 328 326 326 323 322 325 324 325 325
326 326 327 327 324 323 322 324 324 329 336 333 334 337 335 333 331 331 328 327 325 328 327 327 326 325 325 321 325 323 323 324
323 324 325 328 330 331 322 322 325 327 334 333 334 337 336 334 332 331 329 324 323 329 327 326 325 326 323 322 323 323 322 323
321 320 320 322 326 329 329 322 322 326 330 335 334 337 336 333 333 332 330 322 319 322 326 326 327 325 325 324 322 323 324 323
317 315 315 319 323 328 328 328 322 326 329 334 336 336 335 334 333 332 328 328 325 323 326 326 325 324 323 323 324 323 323 323
313 311 315 318 323 328 327 325 322 326 329 334 334 336 334 334 332 330 327 328 327 324 322 323 324 324 324 324 323 324 324 323
310 307 312 314 322 329 331 331 329 330 331 334 335 335 332 333 332 329 327 327 326 323 323 323 324 323 324 323 322 323 323 322
308 304 307 313 319 325 329 329 332 332 333 333 333 332 331 332 330 328 327 326 322 320 324 325 323 325 324 323 322 321 322 322
304 303 302 307 312 319 324 326 328 329 329 330 331 330 330 331 329 327 326 322 322 324 323 324 323 322 322 322 322 323 322 321
300 299 299 303 307 308 316 322 325 324 325 326 327 329 330 329 327 326 324 323 322 322 321 321 321 321 321 321 322 322 321 322
297 298 298 299 304 304 307 313 320 323 324 325 326 327 329 328 326 326 323 321 321 321 320 321 321 323 320 320 321 321 321 320
296 298 299 298 302 304 301 304 311 318 322 324 325 327 326 326 325 324 322 321 320 320 320 320 320 321 319 320 320 319 319 319
296 297 298 298 298 304 300 301 304 310 315 319 322 323 324 324 323 322 321 321 320 320 319 320 322 321 320 320 320 321 321 320
295 297 298 299 300 301 303 303 303 304 306 309 313 317 320 321 321 321 320 320 320 319 320 319 320 320 320 319 319 319 319 319

GFSFLT1_850_thetae_111.txt.gz
Theta_e
320 320 320 320 319 319 322 334 337 337 337 338 339 338 335 335 333 331 326 321 325 329 328 331 331 331 330 330 330 329 328 327
320 320 320 321 320 319 319 331 336 339 340 340 337 337 337 337 334 333 329 325 321 324 327 329 330 330 330 331 329 328 329 327
321 321 321 321 321 320 321 327 333 339 338 336 334 333 338 337 336 333 330 327 321 321 325 328 329 329 329 329 330 330 327 325
320 321 321 321 321 320 319 325 330 338 337 338 338 338 338 337 336 334 331 328 323 323 326 328 328 329 328 328 328 328 326 323
322 322 323 323 322 322 326 324 333 337 336 336 336 334 332 337 337 335 333 329 325 325 325 325 328 327 327 327 325 322 325 325
325 326 327 327 325 325 324 333 335 337 336 332 332 336 334 333 338 336 334 328 327 328 325 324 326 326 326 326 322 322 323 326
323 324 326 326 327 329 327 324 328 331 333 333 325 331 332 332 337 336 334 329 328 328 324 326 325 327 326 324 322 323 323 325
318 318 319 321 322 326 328 328 325 329 330 332 325 331 332 330 335 336 332 330 328 325 324 325 328 325 325 325 322 323 325 325
315 315 317 318 321 323 326 328 328 324 330 332 329 331 334 332 334 335 332 329 328 327 324 325 325 325 324 325 322 324 322 322
311 311 312 316 319 322 327 328 329 328 324 329 332 333 334 333 335 334 333 330 329 326 323 326 325 326 323 324 322 323 323 322
306 305 307 312 316 319 326 329 328 328 325 327 330 331 333 332 334 333 333 332 329 323 322 324 326 325 326 324 324 324 322 323
303 303 305 307 312 317 324 329 331 329 325 329 331 330 332 332 333 333 332 332 328 327 324 324 325 325 324 323 323 323 324 323
301 301 301 304 307 313 319 325 328 330 332 332 330 330 330 331 331 333 332 329 328 327 325 323 323 323 323 323 323 323 323 324
300 301 299 300 303 307 314 321 325 327 328 329 330 329 330 330 331 332 330 328 327 326 324 321 324 323 322 322 322 323 320 322
298 300 300 299 299 304 308 312 319 324 324 325 329 330 330 329 330 331 329 327 327 324 320 321 323 321 322 323 323 322 321 322
296 297 298 300 300 301 304 307 311 317 322 324 325 325 329 329 330 329 328 326 324 323 321 321 320 321 320 320 321 321 322 321
296 297 298 299 300 300 300 304 306 309 314 320 323 325 327 328 327 326 326 324 322 321 321 320 320 319 319 319 319 319 319 319
294 295 296 297 299 299 300 302 304 304 306 308 315 320 324 325 325 325 323 322 322 321 320 320 320 319 319 319 319 319 319 319
293 294 295 297 297 299 300 302 303 304 303 304 307 310 312 315 321 322 322 321 321 320 320 320 320 319 319 319 319 320 321 320

GFSFLT1_850_thetae_114.txt.gz
Theta_e
320 320 320 320 320 319 319 324 330 335 338 338 337 337 337 335 333 328 328 326 323 323 329 331 331 332 333 331 331 331 330 329
320 320 320 320 320 320 320 320 323 335 340 339 340 338 336 337 336 332 331 329 325 324 327 328 330 332 332 331 331 329 328 327
320 320 320 320 320 320 320 320 320 327 338 339 339 339 337 336 336 334 333 332 327 323 323 324 326 330 331 329 328 327 327 326
318 319 319 320 320 320 319 321 320 323 333 340 337 337 336 336 337 336 334 334 331 324 323 324 324 327 329 329 328 327 326 325
324 324 324 324 325 325 324 329 335 332 334 340 338 337 333 329 330 333 333 334 332 327 323 325 324 327 327 328 328 329 326 325
319 321 323 323 324 326 327 336 339 339 339 339 337 339 334 331 330 330 333 335 334 330 325 327 327 326 327 327 328 329 329 327
314 315 318 320 321 323 326 326 331 338 338 335 335 336 335 334 333 333 333 335 335 333 330 327 328 325 326 326 327 326 325 321
313 316 317 318 319 321 322 324 326 329 336 334 333 332 332 331 333 333 333 335 335 335 332 326 329 327 326 325 326 325 322 321
307 310 313 316 318 320 321 322 325 328 327 332 333 333 332 332 331 331 331 334 334 334 331 327 330 328 324 325 326 323 322 322
304 307 309 313 316 318 320 323 327 328 328 327 329 331 334 333 330 330 330 332 334 332 330 328 328 328 325 326 326 324 322 323
301 303 307 310 313 316 319 320 325 328 329 328 326 325 332 332 332 331 328 329 333 331 329 328 326 326 325 324 325 324 323 323
300 300 302 304 307 311 316 319 323 327 329 328 327 325 330 332 331 331 330 329 332 331 330 328 326 325 325 323 322 323 322 323
301 301 300 300 302 307 310 314 320 323 326 330 330 327 330 330 330 330 330 331 332 331 330 324 323 325 324 324 324 323 322 322
300 301 301 301 300 302 305 309 313 320 324 327 330 333 333 333 330 329 330 331 332 331 329 327 324 324 324 324 323 321 323 322
296 299 299 301 301 301 301 304 308 314 320 323 326 329 329 330 329 328 328 329 331 329 328 326 324 322 322 322 322 322 322 322
295 296 297 299 301 301 302 303 304 308 313 317 322 324 328 328 328 327 328 329 329 328 327 326 322 321 322 322 322 322 322 322
293 295 297 297 298 299 301 301 303 304 307 309 313 318 323 326 327 326 328 328 327 326 325 323 321 321 320 320 322 322 321 322
293 293 295 296 297 298 299 300 302 302 303 305 306 310 312 321 322 324 324 323 322 324 322 322 321 321 320 320 319 320 321 320
291 292 294 295 296 297 298 299 300 301 301 302 304 304 305 308 308 318 319 322 322 321 321 321 322 320 320 319 318 318 319 319

GFSFLT1_850_thetae_117.txt.gz
Theta_e
320 320 319 319 319 319 319 319 321 329 339 338 336 335 334 331 328 328 326 325 325 323 322 326 330 332 332 332 332 332 331 330
319 320 320 319 319 319 319 319 318 322 336 339 339 337 336 336 334 333 330 328 327 325 323 325 330 331 334 330 331 333 331 329
317 317 317 317 317 317 317 317 319 319 321 326 337 338 337 337 337 337 336 331 329 327 325 324 328 331 332 329 329 328 328 328
318 319 319 320 319 320 320 318 318 319 321 325 337 340 340 337 335 336 336 334 332 329 328 324 325 328 334 329 329 327 327 327
320 321 322 324 325 326 324 321 322 326 332 337 338 333 336 334 332 332 333 335 332 332 330 326 324 326 328 329 331 330 326 326
313 316 316 320 322 326 330 333 331 334 339 338 336 336 336 336 334 334 333 334 333 333 332 328 324 324 327 328 327 327 328 326
306 309 312 316 319 322 325 330 336 337 339 340 339 335 337 333 333 334 333 332 333 334 333 330 326 324 324 326 327 326 326 326
302 304 308 312 316 319 321 323 326 329 336 340 340 338 334 334 329 327 334 332 331 332 333 332 330 327 326 327 329 328 327 328
300 300 305 308 313 317 319 319 321 324 327 331 337 339 337 334 329 327 334 330 328 330 332 333 333 331 327 329 328 328 328 326
300 300 301 305 310 314 317 318 321 324 325 327 327 331 335 334 334 333 331 330 329 329 331 334 334 333 329 328 327 324 327 325
298 299 299 301 306 311 315 318 320 322 324 328 327 327 327 332 332 330 331 332 330 330 330 333 334 332 328 328 326 323 324 326
297 299 301 301 305 309 312 316 319 321 323 326 328 328 327 325 328 330 328 331 330 329 328 331 331 330 329 328 325 323 322 323
297 298 300 302 302 303 306 311 314 315 318 322 325 329 329 330 326 326 328 328 329 329 328 329 330 329 328 327 324 323 322 323
299 298 299 301 302 303 303 306 308 310 314 319 323 326 327 329 332 328 327 328 328 329 328 330 330 329 327 327 323 322 322 322
297 297 298 299 300 301 302 302 305 307 310 314 319 323 325 327 328 330 330 329 329 327 328 328 329 326 324 324 322 322 323 322
293 294 296 298 299 300 301 301 302 304 306 309 312 314 320 323 327 329 328 328 328 327 327 328 327 327 324 323 322 321 322 322
291 293 295 296 296 297 299 300 301 302 303 304 306 310 314 318 322 324 325 325 326 328 327 328 327 326 324 322 321 321 322 322
291 292 293 294 294 294 297 298 299 301 301 302 303 304 306 309 312 316 320 321 324 325 326 325 325 324 322 321 320 321 321 322
289 291 292 293 294 295 295 298 298 299 300 300 300 301 301 303 306 307 309 308 308 316 321 322 322 321 321 320 320 321 320 320

GFSFLT1_850_thetae_120.txt.gz
Theta_e
315 317 318 317 335 335 334 334 335 336 337 336 335 332 327 324 322 322 323 322 323 323 323 323 326 330 330 330 331 332 332 332
316 316 317 316 316 328 334 336 336 336 338 338 338 337 336 333 328 326 326 324 327 326 325 325 325 328 330 330 330 330 330 330
315 315 316 318 317 316 320 331 333 330 331 329 334 336 337 337 334 332 330 329 330 327 327 326 323 326 330 331 329 328 328 327
317 318 318 317 317 317 316 317 317 320 325 329 337 339 339 339 338 336 335 333 332 330 328 328 327 325 328 330 329 328 327 327
312 313 316 321 321 321 320 318 317 317 323 327 332 334 335 333 336 338 337 336 333 333 330 330 328 327 325 328 329 327 327 327
306 309 309 318 322 325 326 324 321 321 330 336 329 332 333 332 334 334 336 334 335 336 334 332 331 330 327 325 329 330 326 327
302 306 309 313 317 320 327 330 332 333 333 334 337 337 336 335 335 334 336 335 333 333 333 332 332 331 329 326 329 327 327 326
300 302 303 309 312 317 322 323 328 332 332 333 335 337 339 334 335 335 335 335 333 330 330 331 331 332 331 326 327 327 327 325
298 299 300 302 307 313 317 319 321 324 328 331 333 334 336 338 333 335 335 334 332 328 328 331 330 331 332 329 325 327 326 326
297 298 299 300 304 309 313 317 320 321 322 324 326 330 333 336 336 336 333 332 330 325 326 330 328 330 332 331 328 327 327 326
297 297 298 299 301 304 310 315 317 319 322 322 324 325 326 329 334 334 333 333 330 325 329 329 329 331 331 332 330 328 327 326
295 297 297 299 300 302 306 311 315 317 320 321 323 325 326 326 327 328 332 333 331 330 330 330 330 330 330 332 331 328 327 325
294 296 298 299 300 302 304 307 311 313 316 318 322 323 323 327 330 330 331 332 331 331 330 330 330 329 329 330 331 328 327 324
294 293 295 296 299 301 302 303 305 309 312 315 317 321 323 324 326 326 328 331 330 328 328 327 327 328 327 329 330 329 326 324
293 294 294 297 297 300 301 302 302 304 306 309 314 315 317 321 323 325 326 327 328 329 328 326 326 327 327 328 328 326 326 323
290 291 293 294 296 297 298 299 301 302 302 304 305 308 311 314 317 322 324 325 326 327 328 329 329 326 326 327 328 327 326 323
289 291 292 293 294 293 297 298 299 300 301 301 301 303 305 308 310 314 317 320 324 325 325 325 326 326 327 328 325 324 322 321
288 289 290 291 292 292 293 296 298 299 299 300 301 301 301 302 305 308 311 312 314 316 321 323 323 322 326 325 325 323 322 320
287 288 290 290 290 292 292 293 296 297 298 299 299 299 300 301 301 302 304 305 307 308 310 307 312 313 323 324 324 322 321 321

GFSFLT1_850_thetae_126.txt.gz
Theta_e
307 307 307 311 315 316 317 327 338 338 334 331 336 334 323 323 322 322 322 323 324 323 323 323 325 327 327 328 330 331 332 332
307 307 309 316 316 318 316 323 336 338 338 336 335 335 328 326 324 323 323 323 324 324 324 323 323 324 325 325 328 330 332 332
309 312 313 314 315 314 316 324 330 338 339 337 333 333 334 333 333 328 323 323 323 324 325 325 324 325 326 327 327 330 332 332
307 308 310 311 312 313 315 322 334 338 340 339 337 336 337 336 335 333 331 328 327 324 325 328 327 325 325 325 326 327 330 331
303 305 307 307 307 311 313 319 327 338 339 340 340 339 339 339 338 338 337 334 332 330 327 331 332 326 326 326 327 327 329 330
300 301 302 303 307 311 313 317 320 329 337 339 339 339 341 341 338 336 335 335 336 334 333 331 329 327 327 328 329 329 330 330
298 299 299 302 305 308 311 315 317 321 333 336 330 335 339 338 338 339 341 336 333 336 337 334 332 330 329 332 330 330 330 330
296 297 298 299 301 304 306 313 319 321 326 332 337 335 335 335 336 335 336 337 337 334 338 339 336 334 333 331 330 326 324 329
293 295 296 297 297 300 304 311 315 321 324 326 329 331 331 333 333 335 336 335 336 336 337 337 335 333 334 332 329 326 324 327
292 293 293 294 295 296 299 305 310 318 319 323 327 328 328 330 331 331 331 332 334 334 336 336 337 333 332 332 330 328 328 328
291 291 292 292 294 295 298 302 308 314 314 318 322 324 325 326 326 326 328 328 330 331 333 334 336 335 332 332 329 332 329 328
290 290 291 292 292 295 297 299 302 306 310 315 315 319 320 321 322 322 322 323 324 327 329 331 331 334 333 334 332 330 327 326
290 291 290 291 293 294 297 299 302 303 305 310 313 318 319 320 322 322 323 324 326 327 327 327 328 330 334 332 331 328 327 328
290 291 290 291 291 294 295 296 296 300 306 310 311 314 314 316 317 318 320 322 324 326 326 327 327 327 328 329 331 327 326 327
289 289 289 290 290 294 294 298 300 302 304 303 302 305 307 308 309 311 314 316 318 320 322 324 325 326 327 327 327 328 329 329
289 288 287 290 290 290 292 294 297 299 298 299 299 300 302 304 306 307 308 310 311 312 313 315 318 321 323 325 325 326 326 326
287 286 286 287 287 288 289 291 294 295 297 297 297 299 300 301 302 303 304 304 306 307 308 308 311 313 314 319 324 325 325 325
285 284 284 284 285 286 286 288 288 293 296 297 298 297 298 299 300 301 301 301 302 302 303 304 305 307 311 313 317 319 321 321
284 285 286 284 284 285 285 286 287 291 293 294 295 295 296 297 298 299 299 299 300 300 300 300 301 301 305 307 309 313 316 314

GFSFLT1_850_thetae_129.txt.gz
Theta_e
312 312 311 310 310 313 318 318 318 327 338 338 340 339 338 338 337 338 339 332 326 337 336 339 330 337 336 332 334 332 336 335
309 310 311 312 314 316 317 319 319 319 338 337 340 338 338 337 334 336 338 338 323 325 332 333 325 328 329 327 330 338 334 334
305 306 308 310 312 313 315 316 316 319 334 337 338 338 337 334 333 333 325 330 326 322 323 333 327 327 329 329 329 337 331 331
302 302 303 305 307 309 310 313 317 317 327 337 337 339 337 336 335 335 334 328 329 323 322 329 328 325 328 327 336 336 330 326
299 299 300 300 302 303 308 308 313 321 326 334 337 337 337 336 336 335 336 336 338 335 326 328 332 330 330 334 332 334 333 330
297 296 297 298 300 301 305 307 311 318 325 332 336 337 338 336 336 337 338 338 339 338 338 335 335 335 335 334 332 332 332 331
296 294 295 296 298 299 303 306 312 316 324 331 335 337 336 337 336 337 341 340 338 338 338 337 336 336 336 334 333 331 328 330
295 293 293 294 296 298 300 303 306 312 318 325 329 333 336 334 331 321 337 336 336 337 340 338 337 337 336 335 334 331 330 330
293 292 291 292 294 296 298 300 301 307 316 322 321 326 326 327 321 320 334 335 335 334 335 337 336 338 336 336 336 333 333 330
291 291 291 291 292 294 297 297 299 303 313 320 322 321 325 326 325 329 332 332 333 333 334 334 333 334 335 334 334 336 335 334
291 290 290 290 291 292 295 296 297 299 310 318 322 322 320 322 325 325 326 328 329 330 330 332 331 332 332 332 333 335 335 334
291 290 289 290 291 291 293 294 296 298 306 310 314 314 316 315 318 318 319 321 323 324 325 327 331 330 331 330 332 333 334 334
290 290 289 289 290 292 292 293 295 296 301 307 309 310 309 311 314 318 317 318 320 322 324 326 328 328 329 330 332 331 332 332
290 289 289 289 289 290 292 294 294 294 296 297 299 302 307 309 312 314 317 316 318 319 323 325 327 328 328 329 329 331 331 330
289 288 288 288 289 289 290 291 293 295 296 297 300 301 304 307 307 309 311 311 313 316 317 318 318 319 322 325 326 328 329 328
289 288 287 288 289 289 290 291 293 294 298 297 299 300 301 305 304 304 306 307 306 309 309 310 311 313 315 318 320 323 324 325
288 286 286 287 287 288 290 290 294 294 297 294 296 299 299 301 297 299 300 300 301 302 304 305 306 308 306 311 313 316 317 319
287 286 285 286 287 287 288 288 290 291 290 292 292 293 293 294 295 297 297 296 297 298 299 300 299 303 303 307 307 309 311 311
288 286 285 286 287 287 287 288 288 290 290 291 291 290 291 292 294 295 295 295 295 295 295 296 298 299 301 302 303 304 305 305